Wetterdaten: Dienstag, 23.03.2021
Datum Zeit Temp. Aussen Temp. o. S. Temp +5cm Feuchte Auss Luftdruck Regen Sonnenschein Regendauer Solar Windben Empfang
23.03.2021 00:00 6,2 C 5,6 C 3,4 C 84 % 1026,4 hPa 0,0 l/m 0 min 0 min 0 W/m 0,0 km/h (0 Bft) 95,74 %
23.03.2021 00:02 6,2 C 5,6 C 3,4 C 84 % 1026,4 hPa 0,0 l/m 0 min 0 min 0 W/m 0,0 km/h (0 Bft) 13,33 %
23.03.2021 00:04 6,1 C 5,6 C 3,4 C 84 % 1026,4 hPa 0,0 l/m 0 min 0 min 0 W/m 0,0 km/h (0 Bft) 58,06 %
23.03.2021 00:08 6,1 C 5,6 C 3,4 C 84 % 1026,4 hPa 0,0 l/m 0 min 0 min 0 W/m 6,4 km/h (2 Bft) 80,43 %
23.03.2021 00:10 6,1 C 5,6 C 3,4 C 84 % 1026,4 hPa 0,0 l/m 0 min 0 min 0 W/m 6,4 km/h (2 Bft) 97,87 %
23.03.2021 00:12 6,1 C 5,6 C 3,4 C 84 % 1026,4 hPa 0,0 l/m 0 min 0 min 0 W/m 3,2 km/h (1 Bft) 97,87 %
23.03.2021 00:14 6,1 C 5,6 C 3,4 C 84 % 1026,4 hPa 0,0 l/m 0 min 0 min 0 W/m 3,2 km/h (1 Bft) 97,87 %
23.03.2021 00:16 6,1 C 5,6 C 3,4 C 84 % 1026,4 hPa 0,0 l/m 0 min 0 min 0 W/m 0,0 km/h (0 Bft) 93,62 %
23.03.2021 00:18 6,1 C 5,6 C 3,4 C 84 % 1026,4 hPa 0,0 l/m 0 min 0 min 0 W/m 0,0 km/h (0 Bft) 97,83 %
23.03.2021 00:20 6,1 C 5,6 C 3,4 C 84 % 1026,4 hPa 0,0 l/m 0 min 0 min 0 W/m 3,2 km/h (1 Bft) 97,87 %
23.03.2021 00:22 6,1 C 5,6 C 3,4 C 84 % 1026,4 hPa 0,0 l/m 0 min 0 min 0 W/m 3,2 km/h (1 Bft) 97,87 %
23.03.2021 00:24 6,1 C 5,6 C 3,4 C 84 % 1026,4 hPa 0,0 l/m 0 min 0 min 0 W/m 3,2 km/h (1 Bft) 95,74 %
23.03.2021 00:26 6,1 C 5,6 C 3,4 C 84 % 1026,3 hPa 0,0 l/m 0 min 0 min 0 W/m 0,0 km/h (0 Bft) 100,00 %
23.03.2021 00:28 6,1 C 5,6 C 3,4 C 84 % 1026,4 hPa 0,0 l/m 0 min 0 min 0 W/m 0,0 km/h (0 Bft) 100,00 %
23.03.2021 00:30 6,1 C 5,0 C 2,8 C 84 % 1026,3 hPa 0,0 l/m 0 min 0 min 0 W/m 3,2 km/h (1 Bft) 100,00 %
23.03.2021 00:32 6,1 C 5,0 C 2,8 C 84 % 1026,3 hPa 0,0 l/m 0 min 0 min 0 W/m 0,0 km/h (0 Bft) 100,00 %
23.03.2021 00:34 6,1 C 5,0 C 2,8 C 84 % 1026,3 hPa 0,0 l/m 0 min 0 min 0 W/m 0,0 km/h (0 Bft) 100,00 %
23.03.2021 00:36 6,0 C 5,0 C 2,8 C 84 % 1026,3 hPa 0,0 l/m 0 min 0 min 0 W/m 0,0 km/h (0 Bft) 100,00 %
23.03.2021 00:38 6,0 C 5,0 C 2,8 C 84 % 1026,3 hPa 0,0 l/m 0 min 0 min 0 W/m 0,0 km/h (0 Bft) 100,00 %
23.03.2021 00:40 6,0 C 5,0 C 2,8 C 84 % 1026,4 hPa 0,0 l/m 0 min 0 min 0 W/m 3,2 km/h (1 Bft) 100,00 %
23.03.2021 00:42 6,0 C 4,4 C 2,3 C 84 % 1026,3 hPa 0,0 l/m 0 min 0 min 0 W/m 0,0 km/h (0 Bft) 100,00 %
23.03.2021 00:44 6,0 C 4,4 C 2,3 C 84 % 1026,3 hPa 0,0 l/m 0 min 0 min 0 W/m 0,0 km/h (0 Bft) 100,00 %
23.03.2021 00:46 5,9 C 4,4 C 2,3 C 84 % 1026,3 hPa 0,0 l/m 0 min 0 min 0 W/m 0,0 km/h (0 Bft) 97,87 %
23.03.2021 00:48 5,9 C 4,4 C 2,3 C 83 % 1026,4 hPa 0,0 l/m 0 min 0 min 0 W/m 3,2 km/h (1 Bft) 97,87 %
23.03.2021 00:50 5,9 C 4,4 C 2,3 C 84 % 1026,3 hPa 0,0 l/m 0 min 0 min 0 W/m 0,0 km/h (0 Bft) 97,87 %
23.03.2021 00:52 5,8 C 4,4 C 2,3 C 84 % 1026,4 hPa 0,0 l/m 0 min 0 min 0 W/m 0,0 km/h (0 Bft) 100,00 %
23.03.2021 00:54 5,8 C 3,9 C 2,3 C 84 % 1026,3 hPa 0,0 l/m 0 min 0 min 0 W/m 0,0 km/h (0 Bft) 100,00 %
23.03.2021 00:56 5,8 C 3,9 C 2,3 C 83 % 1026,4 hPa 0,0 l/m 0 min 0 min 0 W/m 0,0 km/h (0 Bft) 97,83 %
23.03.2021 00:58 5,7 C 3,9 C 2,3 C 84 % 1026,4 hPa 0,0 l/m 0 min 0 min 0 W/m 0,0 km/h (0 Bft) 100,00 %
23.03.2021 01:00 5,7 C 3,9 C 1,7 C 84 % 1026,4 hPa 0,0 l/m 0 min 0 min 0 W/m 0,0 km/h (0 Bft) 100,00 %
23.03.2021 01:02 5,6 C 3,9 C 1,7 C 84 % 1026,3 hPa 0,0 l/m 0 min 0 min 0 W/m 0,0 km/h (0 Bft) 100,00 %
23.03.2021 01:04 5,6 C 3,9 C 1,7 C 84 % 1026,3 hPa 0,0 l/m 0 min 0 min 0 W/m 0,0 km/h (0 Bft) 100,00 %
23.03.2021 01:06 5,5 C 3,9 C 1,7 C 84 % 1026,4 hPa 0,0 l/m 0 min 0 min 0 W/m 0,0 km/h (0 Bft) 97,87 %
23.03.2021 01:08 5,5 C 3,9 C 1,7 C 84 % 1026,3 hPa 0,0 l/m 0 min 0 min 0 W/m 0,0 km/h (0 Bft) 100,00 %
23.03.2021 01:10 5,5 C 3,9 C 1,7 C 84 % 1026,4 hPa 0,0 l/m 0 min 0 min 0 W/m 0,0 km/h (0 Bft) 100,00 %
23.03.2021 01:12 5,4 C 3,3 C 1,7 C 84 % 1026,4 hPa 0,0 l/m 0 min 0 min 0 W/m 0,0 km/h (0 Bft) 97,87 %
23.03.2021 01:14 5,4 C 3,3 C 1,7 C 84 % 1026,3 hPa 0,0 l/m 0 min 0 min 0 W/m 0,0 km/h (0 Bft) 47,37 %
23.03.2021 01:16 5,4 C 3,3 C 1,7 C 84 % 1026,4 hPa 0,0 l/m 0 min 0 min 0 W/m 0,0 km/h (0 Bft) 95,74 %
23.03.2021 01:18 5,3 C 3,3 C 1,1 C 84 % 1026,4 hPa 0,0 l/m 0 min 0 min 0 W/m 0,0 km/h (0 Bft) 97,87 %
23.03.2021 01:20 5,3 C 3,3 C 1,1 C 84 % 1026,4 hPa 0,0 l/m 0 min 0 min 0 W/m 0,0 km/h (0 Bft) 100,00 %
23.03.2021 01:22 5,3 C 3,3 C 1,1 C 84 % 1026,4 hPa 0,0 l/m 0 min 0 min 0 W/m 0,0 km/h (0 Bft) 100,00 %
23.03.2021 01:24 5,1 C 3,3 C 1,1 C 84 % 1026,4 hPa 0,0 l/m 0 min 0 min 0 W/m 0,0 km/h (0 Bft) 100,00 %
23.03.2021 01:26 5,1 C 3,3 C 1,1 C 84 % 1026,4 hPa 0,0 l/m 0 min 0 min 0 W/m 0,0 km/h (0 Bft) 100,00 %
23.03.2021 01:28 5,0 C 3,3 C 1,1 C 84 % 1026,3 hPa 0,0 l/m 0 min 0 min 0 W/m 0,0 km/h (0 Bft) 100,00 %
23.03.2021 01:30 5,0 C 2,8 C 1,1 C 85 % 1026,4 hPa 0,0 l/m 0 min 0 min 0 W/m 0,0 km/h (0 Bft) 100,00 %
23.03.2021 01:32 4,9 C 2,8 C 1,1 C 85 % 1026,3 hPa 0,0 l/m 0 min 0 min 0 W/m 0,0 km/h (0 Bft) 95,65 %
23.03.2021 01:34 4,9 C 2,8 C 1,1 C 85 % 1026,3 hPa 0,0 l/m 0 min 0 min 0 W/m 0,0 km/h (0 Bft) 97,87 %
23.03.2021 01:36 4,9 C 2,8 C 1,1 C 85 % 1026,3 hPa 0,0 l/m 0 min 0 min 0 W/m 0,0 km/h (0 Bft) 97,87 %
23.03.2021 01:38 4,8 C 2,8 C 1,1 C 85 % 1026,3 hPa 0,0 l/m 0 min 0 min 0 W/m 0,0 km/h (0 Bft) 97,87 %
23.03.2021 01:40 4,8 C 2,8 C 0,6 C 85 % 1026,4 hPa 0,0 l/m 0 min 0 min 0 W/m 0,0 km/h (0 Bft) 97,87 %
23.03.2021 01:42 4,7 C 2,8 C 0,6 C 85 % 1026,4 hPa 0,0 l/m 0 min 0 min 0 W/m 0,0 km/h (0 Bft) 97,87 %
23.03.2021 01:44 4,6 C 2,8 C 0,6 C 85 % 1026,4 hPa 0,0 l/m 0 min 0 min 0 W/m 0,0 km/h (0 Bft) 95,65 %
23.03.2021 01:46 4,6 C 2,8 C 0,6 C 86 % 1026,4 hPa 0,0 l/m 0 min 0 min 0 W/m 0,0 km/h (0 Bft) 93,62 %
23.03.2021 01:48 4,6 C 2,8 C 0,6 C 86 % 1026,3 hPa 0,0 l/m 0 min 0 min 0 W/m 0,0 km/h (0 Bft) 97,87 %
23.03.2021 01:50 4,5 C 2,8 C 0,6 C 86 % 1026,3 hPa 0,0 l/m 0 min 0 min 0 W/m 0,0 km/h (0 Bft) 95,74 %
23.03.2021 01:52 4,5 C 2,8 C 0,6 C 86 % 1026,3 hPa 0,0 l/m 0 min 0 min 0 W/m 0,0 km/h (0 Bft) 97,87 %
23.03.2021 01:54 4,4 C 2,8 C 0,6 C 86 % 1026,3 hPa 0,0 l/m 0 min 0 min 0 W/m 0,0 km/h (0 Bft) 95,74 %
23.03.2021 01:56 4,4 C 2,8 C 0,6 C 86 % 1026,4 hPa 0,0 l/m 0 min 0 min 0 W/m 0,0 km/h (0 Bft) 95,65 %
23.03.2021 01:58 4,4 C 2,8 C 0,6 C 87 % 1026,3 hPa 0,0 l/m 0 min 0 min 0 W/m 0,0 km/h (0 Bft) 91,49 %
23.03.2021 02:00 4,3 C 2,8 C 0,6 C 87 % 1026,4 hPa 0,0 l/m 0 min 0 min 0 W/m 0,0 km/h (0 Bft) 95,74 %
23.03.2021 02:02 4,3 C 2,8 C 0,6 C 87 % 1026,3 hPa 0,0 l/m 0 min 0 min 0 W/m 0,0 km/h (0 Bft) 94,44 %
23.03.2021 02:04 4,3 C 2,8 C 0,6 C 87 % 1026,3 hPa 0,0 l/m 0 min 0 min 0 W/m 0,0 km/h (0 Bft) 93,48 %
23.03.2021 02:06 4,3 C 2,8 C 0,6 C 87 % 1026,3 hPa 0,0 l/m 0 min 0 min 0 W/m 0,0 km/h (0 Bft) 95,74 %
23.03.2021 02:08 4,2 C 2,8 C 1,1 C 87 % 1026,3 hPa 0,0 l/m 0 min 0 min 0 W/m 0,0 km/h (0 Bft) 93,62 %
23.03.2021 02:10 4,2 C 2,8 C 1,1 C 87 % 1026,3 hPa 0,0 l/m 0 min 0 min 0 W/m 0,0 km/h (0 Bft) 95,74 %
23.03.2021 02:12 4,1 C 3,3 C 1,1 C 87 % 1026,3 hPa 0,0 l/m 0 min 0 min 0 W/m 0,0 km/h (0 Bft) 93,62 %
23.03.2021 02:14 4,1 C 3,3 C 1,1 C 88 % 1026,3 hPa 0,0 l/m 0 min 0 min 0 W/m 0,0 km/h (0 Bft) 95,74 %
23.03.2021 02:16 4,1 C 3,3 C 1,1 C 88 % 1026,4 hPa 0,0 l/m 0 min 0 min 0 W/m 0,0 km/h (0 Bft) 95,65 %
23.03.2021 02:18 4,1 C 3,3 C 1,7 C 88 % 1026,3 hPa 0,0 l/m 0 min 0 min 0 W/m 0,0 km/h (0 Bft) 93,62 %
23.03.2021 02:20 4,1 C 3,3 C 1,7 C 88 % 1026,3 hPa 0,0 l/m 0 min 0 min 0 W/m 0,0 km/h (0 Bft) 95,74 %
23.03.2021 02:22 4,1 C 3,3 C 1,7 C 89 % 1026,4 hPa 0,0 l/m 0 min 0 min 0 W/m 0,0 km/h (0 Bft) 93,62 %
23.03.2021 02:24 4,1 C 3,9 C 1,7 C 89 % 1026,3 hPa 0,0 l/m 0 min 0 min 0 W/m 0,0 km/h (0 Bft) 95,74 %
23.03.2021 02:26 4,1 C 3,9 C 1,7 C 89 % 1026,3 hPa 0,0 l/m 0 min 0 min 0 W/m 3,2 km/h (1 Bft) 97,87 %
23.03.2021 02:28 4,2 C 3,9 C 1,7 C 89 % 1026,3 hPa 0,0 l/m 0 min 0 min 0 W/m 0,0 km/h (0 Bft) 95,65 %
23.03.2021 02:30 4,2 C 3,9 C 2,3 C 90 % 1026,3 hPa 0,0 l/m 0 min 0 min 0 W/m 3,2 km/h (1 Bft) 95,74 %
23.03.2021 02:32 4,3 C 3,9 C 2,3 C 90 % 1026,3 hPa 0,0 l/m 0 min 0 min 0 W/m 0,0 km/h (0 Bft) 97,92 %
23.03.2021 02:34 4,3 C 3,9 C 2,3 C 90 % 1026,4 hPa 0,0 l/m 0 min 0 min 0 W/m 3,2 km/h (1 Bft) 100,00 %
23.03.2021 02:36 4,3 C 3,9 C 2,3 C 90 % 1026,4 hPa 0,0 l/m 0 min 0 min 0 W/m 3,2 km/h (1 Bft) 100,00 %
23.03.2021 02:38 4,3 C 3,9 C 2,3 C 90 % 1026,4 hPa 0,0 l/m 0 min 0 min 0 W/m 0,0 km/h (0 Bft) 100,00 %
23.03.2021 02:40 4,4 C 3,9 C 2,3 C 90 % 1026,3 hPa 0,0 l/m 0 min 0 min 0 W/m 0,0 km/h (0 Bft) 97,83 %
23.03.2021 02:42 4,4 C 3,9 C 2,3 C 90 % 1026,3 hPa 0,0 l/m 0 min 0 min 0 W/m 6,4 km/h (2 Bft) 97,87 %
23.03.2021 02:44 4,4 C 4,4 C 2,3 C 90 % 1026,3 hPa 0,0 l/m 0 min 0 min 0 W/m 0,0 km/h (0 Bft) 100,00 %
23.03.2021 02:46 4,4 C 4,4 C 2,3 C 90 % 1026,3 hPa 0,0 l/m 0 min 0 min 0 W/m 3,2 km/h (1 Bft) 97,87 %
23.03.2021 02:48 4,4 C 4,4 C 2,3 C 90 % 1026,3 hPa 0,0 l/m 0 min 0 min 0 W/m 0,0 km/h (0 Bft) 100,00 %
23.03.2021 02:50 4,5 C 4,4 C 2,3 C 90 % 1026,3 hPa 0,0 l/m 0 min 0 min 0 W/m 0,0 km/h (0 Bft) 97,83 %
23.03.2021 02:52 4,5 C 4,4 C 2,3 C 90 % 1026,3 hPa 0,0 l/m 0 min 0 min 0 W/m 3,2 km/h (1 Bft) 97,87 %
23.03.2021 02:54 4,5 C 4,4 C 2,3 C 90 % 1026,3 hPa 0,0 l/m 0 min 0 min 0 W/m 3,2 km/h (1 Bft) 97,87 %
23.03.2021 02:56 4,5 C 4,4 C 2,3 C 90 % 1026,3 hPa 0,0 l/m 0 min 0 min 0 W/m 3,2 km/h (1 Bft) 97,87 %
23.03.2021 02:58 4,5 C 4,4 C 2,3 C 90 % 1026,3 hPa 0,0 l/m 0 min 0 min 0 W/m 3,2 km/h (1 Bft) 100,00 %
23.03.2021 03:00 4,6 C 4,4 C 2,3 C 90 % 1026,3 hPa 0,0 l/m 0 min 0 min 0 W/m 3,2 km/h (1 Bft) 100,00 %
23.03.2021 03:02 4,6 C 4,4 C 2,3 C 90 % 1026,3 hPa 0,0 l/m 0 min 0 min 0 W/m 0,0 km/h (0 Bft) 100,00 %
23.03.2021 03:04 4,6 C 4,4 C 2,8 C 90 % 1026,3 hPa 0,0 l/m 0 min 0 min 0 W/m 0,0 km/h (0 Bft) 100,00 %
23.03.2021 03:06 4,6 C 4,4 C 2,8 C 90 % 1026,3 hPa 0,0 l/m 0 min 0 min 0 W/m 3,2 km/h (1 Bft) 100,00 %
23.03.2021 03:08 4,6 C 4,4 C 2,8 C 90 % 1026,3 hPa 0,0 l/m 0 min 0 min 0 W/m 0,0 km/h (0 Bft) 100,00 %
23.03.2021 03:10 4,6 C 4,4 C 2,8 C 90 % 1026,3 hPa 0,0 l/m 0 min 0 min 0 W/m 0,0 km/h (0 Bft) 100,00 %
23.03.2021 03:12 4,6 C 4,4 C 2,8 C 90 % 1026,3 hPa 0,0 l/m 0 min 0 min 0 W/m 3,2 km/h (1 Bft) 97,87 %
23.03.2021 03:14 4,7 C 4,4 C 2,8 C 90 % 1026,3 hPa 0,0 l/m 0 min 0 min 0 W/m 0,0 km/h (0 Bft) 97,83 %
23.03.2021 03:16 4,7 C 4,4 C 2,8 C 90 % 1026,3 hPa 0,0 l/m 0 min 0 min 0 W/m 0,0 km/h (0 Bft) 100,00 %
23.03.2021 03:18 4,7 C 4,4 C 2,8 C 90 % 1026,3 hPa 0,0 l/m 0 min 0 min 0 W/m 0,0 km/h (0 Bft) 100,00 %
23.03.2021 03:20 4,7 C 4,4 C 2,8 C 90 % 1026,3 hPa 0,0 l/m 0 min 0 min 0 W/m 0,0 km/h (0 Bft) 100,00 %
23.03.2021 03:22 4,7 C 4,4 C 2,8 C 90 % 1026,3 hPa 0,0 l/m 0 min 0 min 0 W/m 0,0 km/h (0 Bft) 97,87 %
23.03.2021 03:24 4,7 C 4,4 C 2,8 C 90 % 1026,3 hPa 0,0 l/m 0 min 0 min 0 W/m 3,2 km/h (1 Bft) 97,83 %
23.03.2021 03:26 4,7 C 4,4 C 2,8 C 90 % 1026,3 hPa 0,0 l/m 0 min 0 min 0 W/m 0,0 km/h (0 Bft) 100,00 %
23.03.2021 03:28 4,7 C 4,4 C 2,8 C 90 % 1026,3 hPa 0,0 l/m 0 min 0 min 0 W/m 3,2 km/h (1 Bft) 100,00 %
23.03.2021 03:30 4,8 C 4,4 C 2,8 C 90 % 1026,2 hPa 0,0 l/m 0 min 0 min 0 W/m 0,0 km/h (0 Bft) 97,87 %
23.03.2021 03:32 4,8 C 4,4 C 2,8 C 90 % 1026,3 hPa 0,0 l/m 0 min 0 min 0 W/m 0,0 km/h (0 Bft) 100,00 %
23.03.2021 03:34 4,8 C 4,4 C 2,8 C 90 % 1026,2 hPa 0,0 l/m 0 min 0 min 0 W/m 0,0 km/h (0 Bft) 100,00 %
23.03.2021 03:36 4,8 C 4,4 C 2,8 C 90 % 1026,2 hPa 0,0 l/m 0 min 0 min 0 W/m 0,0 km/h (0 Bft) 100,00 %
23.03.2021 03:38 4,8 C 4,4 C 2,8 C 90 % 1026,2 hPa 0,0 l/m 0 min 0 min 0 W/m 0,0 km/h (0 Bft) 100,00 %
23.03.2021 03:40 4,8 C 4,4 C 2,8 C 90 % 1026,2 hPa 0,0 l/m 0 min 0 min 0 W/m 3,2 km/h (1 Bft) 100,00 %
23.03.2021 03:42 4,8 C 4,4 C 2,8 C 90 % 1026,2 hPa 0,0 l/m 0 min 0 min 0 W/m 3,2 km/h (1 Bft) 97,87 %
23.03.2021 03:44 4,8 C 4,4 C 2,8 C 90 % 1026,2 hPa 0,0 l/m 0 min 0 min 0 W/m 0,0 km/h (0 Bft) 97,87 %
23.03.2021 03:46 4,8 C 4,4 C 2,8 C 90 % 1026,2 hPa 0,0 l/m 0 min 0 min 0 W/m 0,0 km/h (0 Bft) 95,74 %
23.03.2021 03:48 4,8 C 4,4 C 2,8 C 90 % 1026,2 hPa 0,0 l/m 0 min 0 min 0 W/m 0,0 km/h (0 Bft) 95,74 %
23.03.2021 03:50 4,8 C 4,4 C 2,8 C 90 % 1026,1 hPa 0,0 l/m 0 min 0 min 0 W/m 0,0 km/h (0 Bft) 85,11 %
23.03.2021 03:52 4,8 C 4,4 C 2,8 C 89 % 1026,1 hPa 0,0 l/m 0 min 0 min 0 W/m 3,2 km/h (1 Bft) 71,74 %
23.03.2021 03:54 4,8 C 4,4 C 2,8 C 90 % 1026,0 hPa 0,0 l/m 0 min 0 min 0 W/m 3,2 km/h (1 Bft) 78,72 %
23.03.2021 03:56 4,8 C 4,4 C 2,8 C 89 % 1026,0 hPa 0,0 l/m 0 min 0 min 0 W/m 3,2 km/h (1 Bft) 93,62 %
23.03.2021 03:58 4,8 C 4,4 C 2,8 C 89 % 1026,0 hPa 0,0 l/m 0 min 0 min 0 W/m 3,2 km/h (1 Bft) 80,85 %
23.03.2021 04:00 4,8 C 4,4 C 2,8 C 89 % 1025,9 hPa 0,0 l/m 0 min 0 min 0 W/m 3,2 km/h (1 Bft) 87,23 %
23.03.2021 04:02 4,8 C 4,4 C 2,8 C 89 % 1025,9 hPa 0,0 l/m 0 min 0 min 0 W/m 3,2 km/h (1 Bft) 66,67 %
23.03.2021 04:04 4,9 C 4,4 C 2,8 C 89 % 1025,9 hPa 0,0 l/m 0 min 0 min 0 W/m 3,2 km/h (1 Bft) 44,68 %
23.03.2021 04:06 4,8 C 4,4 C 2,8 C 89 % 1025,9 hPa 0,0 l/m 0 min 0 min 0 W/m 3,2 km/h (1 Bft) 82,98 %
23.03.2021 04:08 4,9 C 4,4 C 2,8 C 89 % 1025,9 hPa 0,0 l/m 0 min 0 min 0 W/m 0,0 km/h (0 Bft) 97,87 %
23.03.2021 04:10 4,9 C 4,4 C 2,8 C 89 % 1025,9 hPa 0,0 l/m 0 min 0 min 0 W/m 3,2 km/h (1 Bft) 89,36 %
23.03.2021 04:12 4,9 C 4,4 C 2,8 C 89 % 1025,9 hPa 0,0 l/m 0 min 0 min 0 W/m 3,2 km/h (1 Bft) 62,22 %
23.03.2021 04:14 4,9 C 4,4 C 2,8 C 88 % 1025,9 hPa 0,0 l/m 0 min 0 min 0 W/m 3,2 km/h (1 Bft) 95,74 %
23.03.2021 04:16 4,9 C 4,4 C 2,8 C 88 % 1025,9 hPa 0,0 l/m 0 min 0 min 0 W/m 0,0 km/h (0 Bft) 93,62 %
23.03.2021 04:18 4,9 C 4,4 C 2,8 C 88 % 1026,0 hPa 0,0 l/m 0 min 0 min 0 W/m 0,0 km/h (0 Bft) 95,74 %
23.03.2021 04:20 4,9 C 4,4 C 2,8 C 88 % 1026,0 hPa 0,0 l/m 0 min 0 min 0 W/m 0,0 km/h (0 Bft) 93,62 %
23.03.2021 04:22 4,9 C 4,4 C 2,8 C 88 % 1026,0 hPa 0,0 l/m 0 min 0 min 0 W/m 0,0 km/h (0 Bft) 95,74 %
23.03.2021 04:24 4,9 C 4,4 C 2,8 C 88 % 1026,0 hPa 0,0 l/m 0 min 0 min 0 W/m 0,0 km/h (0 Bft) 91,30 %
23.03.2021 04:26 4,9 C 4,4 C 2,8 C 88 % 1026,0 hPa 0,0 l/m 0 min 0 min 0 W/m 0,0 km/h (0 Bft) 93,62 %
23.03.2021 04:28 5,0 C 4,4 C 2,8 C 88 % 1026,0 hPa 0,0 l/m 0 min 0 min 0 W/m 3,2 km/h (1 Bft) 95,74 %
23.03.2021 04:30 5,0 C 4,4 C 2,8 C 88 % 1026,0 hPa 0,0 l/m 0 min 0 min 0 W/m 0,0 km/h (0 Bft) 93,62 %
23.03.2021 04:32 5,0 C 4,4 C 2,8 C 88 % 1026,0 hPa 0,0 l/m 0 min 0 min 0 W/m 3,2 km/h (1 Bft) 95,74 %
23.03.2021 04:34 5,0 C 4,4 C 2,8 C 88 % 1026,0 hPa 0,0 l/m 0 min 0 min 0 W/m 0,0 km/h (0 Bft) 95,74 %
23.03.2021 04:36 5,0 C 4,4 C 2,8 C 88 % 1026,0 hPa 0,0 l/m 0 min 0 min 0 W/m 3,2 km/h (1 Bft) 95,65 %
23.03.2021 04:38 5,0 C 4,4 C 2,8 C 88 % 1026,0 hPa 0,0 l/m 0 min 0 min 0 W/m 0,0 km/h (0 Bft) 97,87 %
23.03.2021 04:40 5,0 C 4,4 C 2,8 C 88 % 1026,0 hPa 0,0 l/m 0 min 0 min 0 W/m 3,2 km/h (1 Bft) 97,87 %
23.03.2021 04:42 5,1 C 4,4 C 2,8 C 88 % 1026,0 hPa 0,0 l/m 0 min 0 min 0 W/m 0,0 km/h (0 Bft) 95,74 %
23.03.2021 04:44 5,1 C 4,4 C 2,8 C 88 % 1026,1 hPa 0,0 l/m 0 min 0 min 0 W/m 3,2 km/h (1 Bft) 95,74 %
23.03.2021 04:46 5,1 C 4,4 C 2,8 C 88 % 1026,1 hPa 0,0 l/m 0 min 0 min 0 W/m 3,2 km/h (1 Bft) 93,62 %
23.03.2021 04:48 5,1 C 4,4 C 2,8 C 88 % 1026,1 hPa 0,0 l/m 0 min 0 min 0 W/m 3,2 km/h (1 Bft) 95,65 %
23.03.2021 04:50 5,1 C 4,4 C 2,8 C 88 % 1026,1 hPa 0,0 l/m 0 min 0 min 0 W/m 6,4 km/h (2 Bft) 95,74 %
23.03.2021 04:52 5,1 C 4,4 C 2,8 C 88 % 1026,1 hPa 0,0 l/m 0 min 0 min 0 W/m 3,2 km/h (1 Bft) 95,74 %
23.03.2021 04:54 5,1 C 4,4 C 2,8 C 88 % 1026,0 hPa 0,0 l/m 0 min 0 min 0 W/m 3,2 km/h (1 Bft) 95,74 %
23.03.2021 04:56 5,1 C 4,4 C 2,8 C 88 % 1026,0 hPa 0,0 l/m 0 min 0 min 0 W/m 3,2 km/h (1 Bft) 91,49 %
23.03.2021 04:58 5,1 C 4,4 C 2,8 C 88 % 1026,0 hPa 0,0 l/m 0 min 0 min 0 W/m 6,4 km/h (2 Bft) 95,74 %
23.03.2021 05:00 5,1 C 4,4 C 2,8 C 88 % 1026,0 hPa 0,0 l/m 0 min 0 min 0 W/m 0,0 km/h (0 Bft) 95,65 %
23.03.2021 05:02 5,1 C 4,4 C 2,8 C 88 % 1026,0 hPa 0,0 l/m 0 min 0 min 0 W/m 3,2 km/h (1 Bft) 97,87 %
23.03.2021 05:04 5,1 C 4,4 C 2,8 C 88 % 1026,0 hPa 0,0 l/m 0 min 0 min 0 W/m 3,2 km/h (1 Bft) 95,74 %
23.03.2021 05:06 5,1 C 4,4 C 2,8 C 88 % 1026,1 hPa 0,0 l/m 0 min 0 min 0 W/m 3,2 km/h (1 Bft) 95,74 %
23.03.2021 05:08 5,1 C 4,4 C 2,8 C 88 % 1026,0 hPa 0,0 l/m 0 min 0 min 0 W/m 3,2 km/h (1 Bft) 95,74 %
23.03.2021 05:10 5,1 C 4,4 C 2,8 C 88 % 1026,1 hPa 0,0 l/m 0 min 0 min 0 W/m 0,0 km/h (0 Bft) 95,74 %
23.03.2021 05:12 5,1 C 4,4 C 2,8 C 88 % 1026,0 hPa 0,0 l/m 0 min 0 min 0 W/m 0,0 km/h (0 Bft) 95,65 %
23.03.2021 05:14 5,1 C 4,4 C 2,8 C 88 % 1026,0 hPa 0,0 l/m 0 min 0 min 0 W/m 0,0 km/h (0 Bft) 93,62 %
23.03.2021 05:16 5,1 C 4,4 C 2,8 C 88 % 1025,9 hPa 0,0 l/m 0 min 0 min 0 W/m 0,0 km/h (0 Bft) 97,87 %
23.03.2021 05:18 5,1 C 4,4 C 2,8 C 88 % 1026,0 hPa 0,0 l/m 0 min 0 min 0 W/m 0,0 km/h (0 Bft) 72,34 %
23.03.2021 05:20 5,1 C 4,4 C 2,8 C 88 % 1026,0 hPa 0,0 l/m 0 min 0 min 0 W/m 0,0 km/h (0 Bft) 76,19 %
23.03.2021 05:22 5,1 C 4,4 C 2,8 C 88 % 1025,9 hPa 0,0 l/m 0 min 0 min 0 W/m 0,0 km/h (0 Bft) 93,62 %
23.03.2021 05:24 5,1 C 4,4 C 2,8 C 88 % 1026,0 hPa 0,0 l/m 0 min 0 min 0 W/m 0,0 km/h (0 Bft) 95,65 %
23.03.2021 05:26 5,1 C 4,4 C 2,8 C 88 % 1025,9 hPa 0,0 l/m 0 min 0 min 0 W/m 0,0 km/h (0 Bft) 97,87 %
23.03.2021 05:28 5,1 C 4,4 C 2,8 C 88 % 1025,9 hPa 0,0 l/m 0 min 0 min 0 W/m 0,0 km/h (0 Bft) 97,87 %
23.03.2021 05:30 5,1 C 4,4 C 2,8 C 88 % 1026,0 hPa 0,0 l/m 0 min 0 min 0 W/m 0,0 km/h (0 Bft) 95,74 %
23.03.2021 05:32 5,1 C 4,4 C 2,8 C 88 % 1025,9 hPa 0,0 l/m 0 min 0 min 0 W/m 0,0 km/h (0 Bft) 93,75 %
23.03.2021 05:34 5,1 C 4,4 C 2,8 C 87 % 1025,9 hPa 0,0 l/m 0 min 0 min 0 W/m 3,2 km/h (1 Bft) 97,87 %
23.03.2021 05:36 5,1 C 4,4 C 2,8 C 87 % 1025,9 hPa 0,0 l/m 0 min 0 min 0 W/m 0,0 km/h (0 Bft) 100,00 %
23.03.2021 05:38 5,1 C 4,4 C 2,8 C 88 % 1025,9 hPa 0,0 l/m 0 min 0 min 0 W/m 6,4 km/h (2 Bft) 100,00 %
23.03.2021 05:40 5,1 C 4,4 C 2,8 C 87 % 1025,9 hPa 0,0 l/m 0 min 0 min 0 W/m 3,2 km/h (1 Bft) 97,87 %
23.03.2021 05:42 5,1 C 4,4 C 2,8 C 87 % 1025,9 hPa 0,0 l/m 0 min 0 min 0 W/m 3,2 km/h (1 Bft) 97,87 %
23.03.2021 05:44 5,1 C 5,0 C 2,8 C 87 % 1025,9 hPa 0,0 l/m 0 min 0 min 0 W/m 3,2 km/h (1 Bft) 100,00 %
23.03.2021 05:46 5,1 C 5,0 C 2,8 C 87 % 1025,9 hPa 0,0 l/m 0 min 0 min 0 W/m 3,2 km/h (1 Bft) 100,00 %
23.03.2021 05:48 5,1 C 5,0 C 2,8 C 87 % 1025,9 hPa 0,0 l/m 0 min 0 min 0 W/m 3,2 km/h (1 Bft) 97,83 %
23.03.2021 05:50 5,1 C 5,0 C 2,8 C 87 % 1026,0 hPa 0,0 l/m 0 min 0 min 0 W/m 3,2 km/h (1 Bft) 100,00 %
23.03.2021 05:52 5,1 C 5,0 C 2,8 C 86 % 1025,9 hPa 0,0 l/m 0 min 0 min 0 W/m 3,2 km/h (1 Bft) 100,00 %
23.03.2021 05:54 5,2 C 5,0 C 2,8 C 86 % 1025,9 hPa 0,0 l/m 0 min 0 min 0 W/m 6,4 km/h (2 Bft) 97,87 %
23.03.2021 05:56 5,2 C 5,0 C 2,8 C 86 % 1025,9 hPa 0,0 l/m 0 min 0 min 0 W/m 3,2 km/h (1 Bft) 100,00 %
23.03.2021 05:58 5,2 C 5,0 C 3,4 C 86 % 1025,9 hPa 0,0 l/m 0 min 0 min 0 W/m 3,2 km/h (1 Bft) 89,13 %
23.03.2021 06:00 5,3 C 5,0 C 3,4 C 86 % 1025,9 hPa 0,0 l/m 0 min 0 min 0 W/m 3,2 km/h (1 Bft) 89,36 %
23.03.2021 06:02 5,3 C 5,0 C 3,4 C 86 % 1025,9 hPa 0,0 l/m 0 min 0 min 0 W/m 3,2 km/h (1 Bft) 97,37 %
23.03.2021 06:04 5,3 C 5,0 C 3,4 C 85 % 1025,9 hPa 0,0 l/m 0 min 0 min 0 W/m 3,2 km/h (1 Bft) 84,78 %
23.03.2021 06:08 5,4 C 5,0 C 3,4 C 85 % 1025,8 hPa 0,0 l/m 0 min 0 min 0 W/m 6,4 km/h (2 Bft) 88,30 %
23.03.2021 06:10 5,4 C 5,0 C 3,4 C 85 % 1025,8 hPa 0,0 l/m 0 min 0 min 0 W/m 3,2 km/h (1 Bft) 85,11 %
23.03.2021 06:12 5,4 C 5,0 C 3,4 C 85 % 1025,8 hPa 0,0 l/m 0 min 0 min 0 W/m 3,2 km/h (1 Bft) 95,74 %
23.03.2021 06:14 5,4 C 5,0 C 3,4 C 85 % 1025,8 hPa 0,0 l/m 0 min 0 min 0 W/m 3,2 km/h (1 Bft) 97,87 %
23.03.2021 06:16 5,4 C 5,0 C 3,4 C 85 % 1025,8 hPa 0,0 l/m 0 min 0 min 0 W/m 3,2 km/h (1 Bft) 100,00 %
23.03.2021 06:18 5,4 C 5,0 C 3,4 C 85 % 1025,8 hPa 0,0 l/m 0 min 0 min 0 W/m 3,2 km/h (1 Bft) 97,87 %
23.03.2021 06:20 5,4 C 5,0 C 3,4 C 85 % 1025,8 hPa 0,0 l/m 0 min 0 min 0 W/m 6,4 km/h (2 Bft) 97,87 %
23.03.2021 06:22 5,4 C 5,0 C 3,4 C 85 % 1025,8 hPa 0,0 l/m 0 min 0 min 0 W/m 0,0 km/h (0 Bft) 100,00 %
23.03.2021 06:24 5,4 C 5,0 C 3,4 C 85 % 1025,9 hPa 0,0 l/m 0 min 0 min 0 W/m 6,4 km/h (2 Bft) 95,74 %
23.03.2021 06:26 5,4 C 5,0 C 3,4 C 85 % 1025,9 hPa 0,0 l/m 0 min 0 min 0 W/m 3,2 km/h (1 Bft) 97,87 %
23.03.2021 06:28 5,4 C 5,0 C 3,4 C 84 % 1025,9 hPa 0,0 l/m 0 min 0 min 0 W/m 3,2 km/h (1 Bft) 97,83 %
23.03.2021 06:30 5,4 C 5,0 C 3,4 C 84 % 1025,9 hPa 0,0 l/m 0 min 0 min 0 W/m 3,2 km/h (1 Bft) 97,87 %
23.03.2021 06:32 5,5 C 5,0 C 3,4 C 84 % 1025,9 hPa 0,0 l/m 0 min 0 min 0 W/m 3,2 km/h (1 Bft) 97,87 %
23.03.2021 06:34 5,5 C 5,0 C 3,4 C 84 % 1026,0 hPa 0,0 l/m 0 min 0 min 0 W/m 6,4 km/h (2 Bft) 96,36 %
23.03.2021 06:36 5,5 C 5,0 C 3,4 C 84 % 1026,0 hPa 0,0 l/m 0 min 0 min 0 W/m 9,7 km/h (2 Bft) 95,74 %
23.03.2021 06:38 5,5 C 5,0 C 3,4 C 84 % 1025,9 hPa 0,0 l/m 0 min 0 min 0 W/m 6,4 km/h (2 Bft) 97,87 %
23.03.2021 06:40 5,5 C 5,0 C 3,4 C 84 % 1025,9 hPa 0,0 l/m 0 min 0 min 0 W/m 3,2 km/h (1 Bft) 97,87 %
23.03.2021 06:42 5,5 C 5,0 C 3,4 C 84 % 1025,9 hPa 0,0 l/m 0 min 0 min 0 W/m 6,4 km/h (2 Bft) 97,87 %
23.03.2021 06:44 5,5 C 5,0 C 3,4 C 84 % 1026,0 hPa 0,0 l/m 0 min 0 min 0 W/m 9,7 km/h (2 Bft) 97,87 %
23.03.2021 06:46 5,5 C 5,0 C 3,4 C 84 % 1026,0 hPa 0,0 l/m 0 min 0 min 0 W/m 3,2 km/h (1 Bft) 97,83 %
23.03.2021 06:48 5,5 C 5,0 C 3,4 C 84 % 1026,0 hPa 0,0 l/m 0 min 0 min 5 W/m 3,2 km/h (1 Bft) 97,87 %
23.03.2021 06:50 5,5 C 5,0 C 3,4 C 84 % 1026,1 hPa 0,0 l/m 0 min 0 min 5 W/m 9,7 km/h (2 Bft) 95,74 %
23.03.2021 06:52 5,6 C 5,0 C 3,4 C 84 % 1026,0 hPa 0,0 l/m 0 min 0 min 6 W/m 3,2 km/h (1 Bft) 97,87 %
23.03.2021 06:54 5,6 C 5,0 C 3,4 C 84 % 1026,0 hPa 0,0 l/m 0 min 0 min 8 W/m 3,2 km/h (1 Bft) 97,87 %
23.03.2021 06:56 5,6 C 5,0 C 3,4 C 84 % 1025,9 hPa 0,0 l/m 0 min 0 min 10 W/m 0,0 km/h (0 Bft) 97,87 %
23.03.2021 06:58 5,6 C 5,0 C 3,4 C 84 % 1026,0 hPa 0,0 l/m 0 min 0 min 11 W/m 0,0 km/h (0 Bft) 97,83 %
23.03.2021 07:00 5,6 C 5,0 C 3,4 C 84 % 1026,0 hPa 0,0 l/m 0 min 0 min 12 W/m 0,0 km/h (0 Bft) 97,87 %
23.03.2021 07:02 5,6 C 5,0 C 3,4 C 84 % 1026,0 hPa 0,0 l/m 0 min 0 min 14 W/m 0,0 km/h (0 Bft) 95,83 %
23.03.2021 07:04 5,6 C 5,0 C 3,4 C 84 % 1026,0 hPa 0,0 l/m 0 min 0 min 15 W/m 3,2 km/h (1 Bft) 95,74 %
23.03.2021 07:06 5,6 C 5,0 C 3,4 C 84 % 1026,0 hPa 0,0 l/m 0 min 0 min 16 W/m 6,4 km/h (2 Bft) 89,36 %
23.03.2021 07:08 5,6 C 5,0 C 3,4 C 84 % 1026,0 hPa 0,0 l/m 0 min 0 min 18 W/m 3,2 km/h (1 Bft) 89,36 %
23.03.2021 07:10 5,6 C 5,0 C 3,4 C 84 % 1026,0 hPa 0,0 l/m 0 min 0 min 20 W/m 6,4 km/h (2 Bft) 93,48 %
23.03.2021 07:12 5,6 C 5,0 C 3,4 C 84 % 1026,0 hPa 0,0 l/m 0 min 0 min 22 W/m 3,2 km/h (1 Bft) 100,00 %
23.03.2021 07:14 5,6 C 5,0 C 3,4 C 84 % 1025,9 hPa 0,0 l/m 0 min 0 min 23 W/m 3,2 km/h (1 Bft) 97,87 %
23.03.2021 07:16 5,6 C 5,0 C 3,4 C 84 % 1026,0 hPa 0,0 l/m 0 min 0 min 25 W/m 12,9 km/h (3 Bft) 100,00 %
23.03.2021 07:18 5,6 C 5,0 C 3,4 C 84 % 1025,9 hPa 0,0 l/m 0 min 0 min 26 W/m 9,7 km/h (2 Bft) 100,00 %
23.03.2021 07:20 5,6 C 5,6 C 3,4 C 84 % 1026,0 hPa 0,0 l/m 0 min 0 min 28 W/m 3,2 km/h (1 Bft) 100,00 %
23.03.2021 07:22 5,6 C 5,6 C 3,4 C 84 % 1025,9 hPa 0,0 l/m 0 min 0 min 30 W/m 9,7 km/h (2 Bft) 100,00 %
23.03.2021 07:24 5,7 C 5,6 C 3,4 C 85 % 1026,0 hPa 0,0 l/m 0 min 0 min 32 W/m 6,4 km/h (2 Bft) 100,00 %
23.03.2021 07:26 5,7 C 5,6 C 3,4 C 85 % 1025,9 hPa 0,0 l/m 0 min 0 min 35 W/m 9,7 km/h (2 Bft) 100,00 %
23.03.2021 07:28 5,8 C 5,6 C 3,4 C 85 % 1025,9 hPa 0,0 l/m 0 min 0 min 37 W/m 9,7 km/h (2 Bft) 100,00 %
23.03.2021 07:30 5,8 C 5,6 C 3,4 C 85 % 1026,0 hPa 0,0 l/m 0 min 0 min 40 W/m 6,4 km/h (2 Bft) 100,00 %
23.03.2021 07:32 5,8 C 5,6 C 3,4 C 85 % 1025,9 hPa 0,0 l/m 0 min 0 min 42 W/m 3,2 km/h (1 Bft) 100,00 %
23.03.2021 07:34 5,8 C 5,6 C 3,4 C 85 % 1026,0 hPa 0,0 l/m 0 min 0 min 44 W/m 16,1 km/h (3 Bft) 100,00 %
23.03.2021 07:36 5,8 C 5,6 C 3,4 C 84 % 1026,0 hPa 0,0 l/m 0 min 0 min 45 W/m 9,7 km/h (2 Bft) 100,00 %
23.03.2021 07:38 5,8 C 5,6 C 3,4 C 84 % 1026,0 hPa 0,0 l/m 0 min 0 min 48 W/m 12,9 km/h (3 Bft) 97,87 %
23.03.2021 07:40 5,8 C 5,6 C 3,9 C 84 % 1026,1 hPa 0,0 l/m 0 min 0 min 49 W/m 12,9 km/h (3 Bft) 100,00 %
23.03.2021 07:42 5,9 C 5,6 C 3,9 C 84 % 1026,1 hPa 0,0 l/m 0 min 0 min 51 W/m 12,9 km/h (3 Bft) 97,87 %
23.03.2021 07:44 5,9 C 5,6 C 3,9 C 84 % 1026,1 hPa 0,0 l/m 0 min 0 min 53 W/m 12,9 km/h (3 Bft) 97,87 %
23.03.2021 07:46 5,9 C 5,6 C 3,9 C 84 % 1026,1 hPa 0,0 l/m 0 min 0 min 55 W/m 6,4 km/h (2 Bft) 97,83 %
23.03.2021 07:48 5,9 C 5,6 C 3,9 C 84 % 1026,0 hPa 0,0 l/m 0 min 0 min 61 W/m 9,7 km/h (2 Bft) 95,74 %
23.03.2021 07:50 5,9 C 5,6 C 3,9 C 84 % 1026,1 hPa 0,0 l/m 0 min 0 min 62 W/m 9,7 km/h (2 Bft) 97,87 %
23.03.2021 07:52 6,0 C 5,6 C 3,9 C 84 % 1026,1 hPa 0,0 l/m 0 min 0 min 62 W/m 6,4 km/h (2 Bft) 97,87 %
23.03.2021 07:54 6,0 C 5,6 C 3,9 C 84 % 1026,1 hPa 0,0 l/m 0 min 0 min 64 W/m 6,4 km/h (2 Bft) 97,87 %
23.03.2021 07:56 6,0 C 6,1 C 3,9 C 84 % 1026,2 hPa 0,0 l/m 0 min 0 min 64 W/m 12,9 km/h (3 Bft) 97,83 %
23.03.2021 07:58 6,0 C 6,1 C 3,9 C 84 % 1026,1 hPa 0,0 l/m 0 min 0 min 62 W/m 12,9 km/h (3 Bft) 97,87 %
23.03.2021 08:00 6,0 C 6,1 C 3,9 C 84 % 1026,2 hPa 0,0 l/m 0 min 0 min 65 W/m 6,4 km/h (2 Bft) 95,74 %
23.03.2021 08:02 6,1 C 6,1 C 3,9 C 84 % 1026,2 hPa 0,0 l/m 0 min 0 min 67 W/m 12,9 km/h (3 Bft) 91,67 %
23.03.2021 08:04 6,1 C 6,1 C 3,9 C 84 % 1026,2 hPa 0,0 l/m 0 min 0 min 65 W/m 9,7 km/h (2 Bft) 97,87 %
23.03.2021 08:06 6,1 C 6,1 C 3,9 C 84 % 1026,3 hPa 0,0 l/m 0 min 0 min 68 W/m 16,1 km/h (3 Bft) 97,87 %
23.03.2021 08:08 6,2 C 6,1 C 3,9 C 84 % 1026,3 hPa 0,0 l/m 0 min 0 min 67 W/m 16,1 km/h (3 Bft) 96,55 %
23.03.2021 08:10 6,2 C 6,1 C 3,9 C 84 % 1026,4 hPa 0,0 l/m 0 min 0 min 66 W/m 3,2 km/h (1 Bft) 94,44 %
23.03.2021 08:12 6,3 C 6,1 C 3,9 C 84 % 1026,4 hPa 0,0 l/m 0 min 0 min 66 W/m 6,4 km/h (2 Bft) 97,83 %
23.03.2021 08:14 6,3 C 6,1 C 3,9 C 84 % 1026,4 hPa 0,0 l/m 0 min 0 min 66 W/m 6,4 km/h (2 Bft) 97,87 %
23.03.2021 08:16 6,3 C 6,1 C 3,9 C 84 % 1026,4 hPa 0,0 l/m 0 min 0 min 65 W/m 6,4 km/h (2 Bft) 97,87 %
23.03.2021 08:18 6,3 C 6,1 C 4,5 C 84 % 1026,5 hPa 0,0 l/m 0 min 0 min 68 W/m 9,7 km/h (2 Bft) 97,87 %
23.03.2021 08:20 6,4 C 6,1 C 4,5 C 83 % 1026,5 hPa 0,0 l/m 0 min 0 min 71 W/m 16,1 km/h (3 Bft) 97,87 %
23.03.2021 08:22 6,4 C 6,1 C 4,5 C 83 % 1026,5 hPa 0,0 l/m 0 min 0 min 76 W/m 16,1 km/h (3 Bft) 95,74 %
23.03.2021 08:24 6,4 C 6,1 C 4,5 C 83 % 1026,4 hPa 0,0 l/m 0 min 0 min 82 W/m 6,4 km/h (2 Bft) 97,87 %
23.03.2021 08:26 6,4 C 6,1 C 4,5 C 83 % 1026,4 hPa 0,0 l/m 0 min 0 min 89 W/m 9,7 km/h (2 Bft) 97,83 %
23.03.2021 08:28 6,4 C 6,1 C 4,5 C 83 % 1026,4 hPa 0,0 l/m 0 min 0 min 93 W/m 12,9 km/h (3 Bft) 100,00 %
23.03.2021 08:30 6,5 C 6,7 C 4,5 C 83 % 1026,3 hPa 0,0 l/m 0 min 0 min 97 W/m 9,7 km/h (2 Bft) 97,87 %
23.03.2021 08:32 6,5 C 6,7 C 4,5 C 83 % 1026,4 hPa 0,0 l/m 0 min 0 min 95 W/m 16,1 km/h (3 Bft) 97,87 %
23.03.2021 08:34 6,5 C 6,7 C 4,5 C 83 % 1026,4 hPa 0,0 l/m 0 min 0 min 98 W/m 16,1 km/h (3 Bft) 97,87 %
23.03.2021 08:36 6,5 C 6,7 C 4,5 C 83 % 1026,4 hPa 0,0 l/m 0 min 0 min 105 W/m 6,4 km/h (2 Bft) 98,28 %
23.03.2021 08:38 6,6 C 6,7 C 4,5 C 82 % 1026,4 hPa 0,0 l/m 0 min 0 min 110 W/m 16,1 km/h (3 Bft) 97,87 %
23.03.2021 08:40 6,6 C 6,7 C 4,5 C 82 % 1026,4 hPa 0,0 l/m 0 min 0 min 115 W/m 6,4 km/h (2 Bft) 94,29 %
23.03.2021 08:42 6,6 C 6,7 C 4,5 C 82 % 1026,3 hPa 0,0 l/m 0 min 0 min 123 W/m 6,4 km/h (2 Bft) 97,87 %
23.03.2021 08:44 6,7 C 6,7 C 4,5 C 82 % 1026,3 hPa 0,0 l/m 0 min 0 min 122 W/m 22,5 km/h (4 Bft) 97,87 %
23.03.2021 08:46 6,7 C 6,7 C 4,5 C 82 % 1026,3 hPa 0,0 l/m 0 min 0 min 120 W/m 19,3 km/h (3 Bft) 97,83 %
23.03.2021 08:48 6,8 C 6,7 C 4,5 C 82 % 1026,3 hPa 0,0 l/m 0 min 0 min 118 W/m 16,1 km/h (3 Bft) 93,62 %
23.03.2021 08:50 6,8 C 6,7 C 5,0 C 82 % 1026,3 hPa 0,0 l/m 0 min 0 min 116 W/m 12,9 km/h (3 Bft) 95,74 %
23.03.2021 08:52 6,8 C 6,7 C 5,0 C 82 % 1026,4 hPa 0,0 l/m 0 min 0 min 120 W/m 12,9 km/h (3 Bft) 97,87 %
23.03.2021 08:54 6,8 C 6,7 C 5,0 C 82 % 1026,4 hPa 0,0 l/m 0 min 0 min 125 W/m 12,9 km/h (3 Bft) 95,74 %
23.03.2021 08:56 6,9 C 7,2 C 5,0 C 82 % 1026,4 hPa 0,0 l/m 0 min 0 min 133 W/m 9,7 km/h (2 Bft) 95,74 %
23.03.2021 08:58 6,9 C 7,2 C 5,0 C 82 % 1026,3 hPa 0,0 l/m 0 min 0 min 144 W/m 9,7 km/h (2 Bft) 97,87 %
23.03.2021 09:00 6,9 C 7,2 C 5,0 C 82 % 1026,3 hPa 0,0 l/m 0 min 0 min 156 W/m 9,7 km/h (2 Bft) 97,83 %
23.03.2021 09:02 7,0 C 7,2 C 5,0 C 82 % 1026,3 hPa 0,0 l/m 0 min 0 min 166 W/m 22,5 km/h (4 Bft) 97,87 %
23.03.2021 09:04 7,0 C 7,2 C 5,0 C 82 % 1026,3 hPa 0,0 l/m 0 min 0 min 178 W/m 16,1 km/h (3 Bft) 95,74 %
23.03.2021 09:06 7,0 C 7,2 C 5,6 C 82 % 1026,3 hPa 0,0 l/m 0 min 0 min 170 W/m 6,4 km/h (2 Bft) 96,36 %
23.03.2021 09:08 7,1 C 7,2 C 5,6 C 82 % 1026,2 hPa 0,0 l/m 0 min 0 min 159 W/m 22,5 km/h (4 Bft) 95,65 %
23.03.2021 09:10 7,1 C 7,2 C 5,6 C 82 % 1026,2 hPa 0,0 l/m 0 min 0 min 158 W/m 12,9 km/h (3 Bft) 95,74 %
23.03.2021 09:12 7,1 C 7,8 C 5,6 C 82 % 1026,2 hPa 0,0 l/m 0 min 0 min 177 W/m 19,3 km/h (3 Bft) 95,74 %
23.03.2021 09:14 7,2 C 7,8 C 5,6 C 82 % 1026,2 hPa 0,0 l/m 0 min 0 min 195 W/m 16,1 km/h (3 Bft) 95,74 %
23.03.2021 09:16 7,2 C 7,8 C 5,6 C 81 % 1026,2 hPa 0,0 l/m 0 min 0 min 193 W/m 19,3 km/h (3 Bft) 95,74 %
23.03.2021 09:18 7,3 C 7,8 C 5,6 C 82 % 1026,4 hPa 0,0 l/m 0 min 0 min 188 W/m 12,9 km/h (3 Bft) 95,74 %
23.03.2021 09:20 7,3 C 7,8 C 6,1 C 81 % 1026,4 hPa 0,0 l/m 0 min 0 min 195 W/m 6,4 km/h (2 Bft) 95,65 %
23.03.2021 09:22 7,4 C 7,8 C 6,1 C 82 % 1026,4 hPa 0,0 l/m 2 min 0 min 208 W/m 12,9 km/h (3 Bft) 91,49 %
23.03.2021 09:24 7,4 C 8,3 C 6,1 C 82 % 1026,4 hPa 0,0 l/m 2 min 0 min 217 W/m 12,9 km/h (3 Bft) 95,74 %
23.03.2021 09:26 7,5 C 8,3 C 6,1 C 81 % 1026,4 hPa 0,0 l/m 0 min 0 min 207 W/m 12,9 km/h (3 Bft) 95,74 %
23.03.2021 09:28 7,5 C 8,3 C 6,1 C 81 % 1026,4 hPa 0,0 l/m 0 min 0 min 200 W/m 22,5 km/h (4 Bft) 95,74 %
23.03.2021 09:30 7,5 C 7,8 C 6,1 C 81 % 1026,4 hPa 0,0 l/m 0 min 0 min 192 W/m 22,5 km/h (4 Bft) 95,74 %
23.03.2021 09:32 7,5 C 8,3 C 6,1 C 81 % 1026,5 hPa 0,0 l/m 0 min 0 min 195 W/m 16,1 km/h (3 Bft) 95,74 %
23.03.2021 09:34 7,6 C 8,3 C 6,1 C 81 % 1026,5 hPa 0,0 l/m 0 min 0 min 208 W/m 3,2 km/h (1 Bft) 93,62 %
23.03.2021 09:36 7,6 C 8,3 C 6,1 C 81 % 1026,5 hPa 0,0 l/m 0 min 0 min 216 W/m 12,9 km/h (3 Bft) 95,74 %
23.03.2021 09:38 7,7 C 8,3 C 6,1 C 81 % 1026,5 hPa 0,0 l/m 0 min 0 min 203 W/m 12,9 km/h (3 Bft) 97,87 %
23.03.2021 09:40 7,8 C 8,3 C 6,1 C 81 % 1026,5 hPa 0,0 l/m 0 min 0 min 206 W/m 12,9 km/h (3 Bft) 95,74 %
23.03.2021 09:42 7,8 C 8,9 C 6,7 C 81 % 1026,5 hPa 0,0 l/m 2 min 0 min 231 W/m 6,4 km/h (2 Bft) 97,87 %
23.03.2021 09:44 7,9 C 8,9 C 6,7 C 81 % 1026,5 hPa 0,0 l/m 2 min 0 min 273 W/m 9,7 km/h (2 Bft) 95,65 %
23.03.2021 09:46 8,0 C 9,4 C 7,3 C 81 % 1026,5 hPa 0,0 l/m 2 min 0 min 266 W/m 6,4 km/h (2 Bft) 97,87 %
23.03.2021 09:48 8,0 C 9,4 C 7,3 C 81 % 1026,5 hPa 0,0 l/m 0 min 0 min 210 W/m 6,4 km/h (2 Bft) 97,87 %
23.03.2021 09:50 8,1 C 9,4 C 7,3 C 81 % 1026,5 hPa 0,0 l/m 0 min 0 min 192 W/m 6,4 km/h (2 Bft) 100,00 %
23.03.2021 09:52 8,1 C 9,4 C 7,3 C 81 % 1026,5 hPa 0,0 l/m 0 min 0 min 219 W/m 12,9 km/h (3 Bft) 95,74 %
23.03.2021 09:54 8,1 C 8,9 C 7,3 C 80 % 1026,6 hPa 0,0 l/m 2 min 0 min 242 W/m 12,9 km/h (3 Bft) 95,74 %
23.03.2021 09:56 8,1 C 8,9 C 7,3 C 80 % 1026,6 hPa 0,0 l/m 2 min 0 min 256 W/m 9,7 km/h (2 Bft) 95,65 %
23.03.2021 09:58 8,2 C 9,4 C 7,3 C 80 % 1026,7 hPa 0,0 l/m 2 min 0 min 267 W/m 6,4 km/h (2 Bft) 97,87 %
23.03.2021 10:00 8,3 C 9,4 C 7,3 C 80 % 1026,6 hPa 0,0 l/m 2 min 0 min 274 W/m 6,4 km/h (2 Bft) 97,87 %
23.03.2021 10:02 8,4 C 10,0 C 7,8 C 80 % 1026,6 hPa 0,0 l/m 2 min 0 min 284 W/m 6,4 km/h (2 Bft) 97,92 %
23.03.2021 10:04 8,5 C 10,0 C 7,8 C 80 % 1026,5 hPa 0,0 l/m 2 min 0 min 296 W/m 9,7 km/h (2 Bft) 97,87 %
23.03.2021 10:06 8,5 C 10,0 C 7,8 C 79 % 1026,5 hPa 0,0 l/m 2 min 0 min 289 W/m 6,4 km/h (2 Bft) 100,00 %
23.03.2021 10:08 8,6 C 10,0 C 8,4 C 79 % 1026,6 hPa 0,0 l/m 2 min 0 min 287 W/m 6,4 km/h (2 Bft) 100,00 %
23.03.2021 10:10 8,7 C 10,6 C 8,4 C 79 % 1026,6 hPa 0,0 l/m 2 min 0 min 293 W/m 12,9 km/h (3 Bft) 100,00 %
23.03.2021 10:12 8,8 C 10,6 C 8,4 C 79 % 1026,5 hPa 0,0 l/m 2 min 0 min 312 W/m 9,7 km/h (2 Bft) 100,00 %
23.03.2021 10:14 8,9 C 11,1 C 9,5 C 79 % 1026,5 hPa 0,0 l/m 2 min 0 min 345 W/m 6,4 km/h (2 Bft) 100,00 %
23.03.2021 10:16 9,0 C 11,7 C 9,5 C 78 % 1026,5 hPa 0,0 l/m 2 min 0 min 323 W/m 6,4 km/h (2 Bft) 97,87 %
23.03.2021 10:18 9,1 C 11,7 C 8,9 C 78 % 1026,5 hPa 0,0 l/m 2 min 0 min 321 W/m 9,7 km/h (2 Bft) 97,87 %
23.03.2021 10:20 9,1 C 11,1 C 8,9 C 78 % 1026,5 hPa 0,0 l/m 2 min 0 min 314 W/m 22,5 km/h (4 Bft) 97,87 %
23.03.2021 10:22 9,1 C 11,1 C 8,9 C 77 % 1026,5 hPa 0,0 l/m 2 min 0 min 312 W/m 6,4 km/h (2 Bft) 97,83 %
23.03.2021 10:24 9,1 C 11,1 C 8,9 C 77 % 1026,5 hPa 0,0 l/m 2 min 0 min 309 W/m 6,4 km/h (2 Bft) 97,87 %
23.03.2021 10:26 9,1 C 11,1 C 8,9 C 77 % 1026,5 hPa 0,0 l/m 2 min 0 min 316 W/m 9,7 km/h (2 Bft) 97,87 %
23.03.2021 10:28 9,1 C 10,6 C 8,9 C 77 % 1026,5 hPa 0,0 l/m 2 min 0 min 323 W/m 12,9 km/h (3 Bft) 97,87 %
23.03.2021 10:30 9,1 C 10,6 C 8,9 C 77 % 1026,5 hPa 0,0 l/m 2 min 0 min 297 W/m 12,9 km/h (3 Bft) 97,87 %
23.03.2021 10:32 9,1 C 11,1 C 8,9 C 77 % 1026,5 hPa 0,0 l/m 2 min 0 min 373 W/m 9,7 km/h (2 Bft) 97,87 %
23.03.2021 10:34 9,2 C 11,7 C 10,0 C 77 % 1026,5 hPa 0,0 l/m 2 min 0 min 404 W/m 19,3 km/h (3 Bft) 97,83 %
23.03.2021 10:36 9,3 C 11,7 C 10,0 C 77 % 1026,6 hPa 0,0 l/m 2 min 0 min 375 W/m 16,1 km/h (3 Bft) 95,74 %
23.03.2021 10:38 9,3 C 11,1 C 9,5 C 77 % 1026,7 hPa 0,0 l/m 2 min 0 min 309 W/m 16,1 km/h (3 Bft) 97,87 %
23.03.2021 10:40 9,4 C 11,7 C 9,5 C 77 % 1026,7 hPa 0,0 l/m 2 min 0 min 311 W/m 6,4 km/h (2 Bft) 93,62 %
23.03.2021 10:42 9,4 C 11,7 C 9,5 C 77 % 1026,7 hPa 0,0 l/m 2 min 0 min 349 W/m 9,7 km/h (2 Bft) 95,74 %
23.03.2021 10:44 9,5 C 11,7 C 9,5 C 77 % 1026,6 hPa 0,0 l/m 2 min 0 min 393 W/m 6,4 km/h (2 Bft) 95,74 %
23.03.2021 10:46 9,5 C 11,7 C 10,0 C 76 % 1026,5 hPa 0,0 l/m 2 min 0 min 456 W/m 6,4 km/h (2 Bft) 95,65 %
23.03.2021 10:48 9,5 C 11,7 C 10,0 C 76 % 1026,5 hPa 0,0 l/m 2 min 0 min 371 W/m 12,9 km/h (3 Bft) 100,00 %
23.03.2021 10:50 9,6 C 12,2 C 10,0 C 76 % 1026,5 hPa 0,0 l/m 2 min 0 min 334 W/m 12,9 km/h (3 Bft) 97,87 %
23.03.2021 10:52 9,6 C 12,2 C 10,0 C 77 % 1026,4 hPa 0,0 l/m 2 min 0 min 295 W/m 6,4 km/h (2 Bft) 97,87 %
23.03.2021 10:54 9,7 C 12,2 C 10,6 C 76 % 1026,4 hPa 0,0 l/m 2 min 0 min 317 W/m 9,7 km/h (2 Bft) 97,87 %
23.03.2021 10:56 9,8 C 12,8 C 12,3 C 76 % 1026,4 hPa 0,0 l/m 2 min 0 min 570 W/m 19,3 km/h (3 Bft) 100,00 %
23.03.2021 10:58 9,9 C 13,9 C 13,4 C 76 % 1026,4 hPa 0,0 l/m 2 min 0 min 508 W/m 12,9 km/h (3 Bft) 97,92 %
23.03.2021 11:00 9,9 C 13,9 C 14,5 C 75 % 1026,3 hPa 0,0 l/m 2 min 0 min 490 W/m 12,9 km/h (3 Bft) 100,00 %
23.03.2021 11:02 10,1 C 14,4 C 14,5 C 76 % 1026,3 hPa 0,0 l/m 2 min 0 min 491 W/m 6,4 km/h (2 Bft) 97,87 %
23.03.2021 11:04 10,2 C 13,9 C 13,9 C 76 % 1026,3 hPa 0,0 l/m 2 min 0 min 510 W/m 9,7 km/h (2 Bft) 100,00 %
23.03.2021 11:06 10,3 C 13,9 C 13,4 C 75 % 1026,4 hPa 0,0 l/m 2 min 0 min 405 W/m 16,1 km/h (3 Bft) 100,00 %
23.03.2021 11:08 10,3 C 13,9 C 13,4 C 74 % 1026,3 hPa 0,0 l/m 2 min 0 min 385 W/m 12,9 km/h (3 Bft) 97,83 %
23.03.2021 11:10 10,3 C 13,3 C 12,8 C 74 % 1026,3 hPa 0,0 l/m 2 min 0 min 448 W/m 6,4 km/h (2 Bft) 100,00 %
23.03.2021 11:12 10,3 C 13,9 C 13,4 C 74 % 1026,3 hPa 0,0 l/m 2 min 0 min 431 W/m 9,7 km/h (2 Bft) 100,00 %
23.03.2021 11:14 10,4 C 14,4 C 13,9 C 74 % 1026,3 hPa 0,0 l/m 2 min 0 min 573 W/m 12,9 km/h (3 Bft) 100,00 %
23.03.2021 11:16 10,5 C 13,9 C 13,4 C 74 % 1026,4 hPa 0,0 l/m 2 min 0 min 600 W/m 16,1 km/h (3 Bft) 97,87 %
23.03.2021 11:18 10,5 C 13,9 C 13,4 C 73 % 1026,3 hPa 0,0 l/m 2 min 0 min 501 W/m 25,7 km/h (4 Bft) 100,00 %
23.03.2021 11:20 10,5 C 13,9 C 13,4 C 74 % 1026,2 hPa 0,0 l/m 2 min 0 min 459 W/m 12,9 km/h (3 Bft) 100,00 %
23.03.2021 11:22 10,5 C 14,4 C 13,9 C 73 % 1026,2 hPa 0,0 l/m 2 min 0 min 459 W/m 12,9 km/h (3 Bft) 97,87 %
23.03.2021 11:24 10,6 C 14,4 C 13,4 C 74 % 1026,2 hPa 0,0 l/m 2 min 0 min 443 W/m 6,4 km/h (2 Bft) 100,00 %
23.03.2021 11:26 10,6 C 13,3 C 12,3 C 73 % 1026,2 hPa 0,0 l/m 2 min 0 min 434 W/m 12,9 km/h (3 Bft) 100,00 %
23.03.2021 11:28 10,6 C 13,9 C 13,9 C 74 % 1026,2 hPa 0,0 l/m 2 min 0 min 349 W/m 16,1 km/h (3 Bft) 100,00 %
23.03.2021 11:30 10,8 C 14,4 C 13,9 C 73 % 1026,2 hPa 0,0 l/m 2 min 0 min 722 W/m 16,1 km/h (3 Bft) 100,00 %
23.03.2021 11:32 10,9 C 15,0 C 15,6 C 73 % 1026,3 hPa 0,0 l/m 2 min 0 min 679 W/m 12,9 km/h (3 Bft) 100,00 %
23.03.2021 11:34 11,0 C 16,1 C 16,1 C 72 % 1026,3 hPa 0,0 l/m 2 min 0 min 646 W/m 12,9 km/h (3 Bft) 100,00 %
23.03.2021 11:36 11,1 C 15,6 C 16,1 C 72 % 1026,2 hPa 0,0 l/m 2 min 0 min 628 W/m 12,9 km/h (3 Bft) 100,00 %
23.03.2021 11:38 11,3 C 16,1 C 16,7 C 72 % 1026,1 hPa 0,0 l/m 2 min 0 min 587 W/m 6,4 km/h (2 Bft) 100,00 %
23.03.2021 11:40 11,4 C 16,7 C 17,8 C 73 % 1026,1 hPa 0,0 l/m 2 min 0 min 626 W/m 12,9 km/h (3 Bft) 100,00 %
23.03.2021 11:42 11,5 C 16,1 C 16,7 C 72 % 1026,1 hPa 0,0 l/m 2 min 0 min 609 W/m 16,1 km/h (3 Bft) 97,87 %
23.03.2021 11:44 11,5 C 15,6 C 16,1 C 71 % 1026,1 hPa 0,0 l/m 2 min 0 min 490 W/m 19,3 km/h (3 Bft) 100,00 %
23.03.2021 11:46 11,5 C 15,0 C 15,0 C 71 % 1026,1 hPa 0,0 l/m 2 min 0 min 456 W/m 12,9 km/h (3 Bft) 100,00 %
23.03.2021 11:48 11,5 C 15,0 C 14,5 C 71 % 1026,0 hPa 0,0 l/m 2 min 0 min 482 W/m 16,1 km/h (3 Bft) 100,00 %
23.03.2021 11:50 11,5 C 15,0 C 14,5 C 71 % 1026,0 hPa 0,0 l/m 2 min 0 min 483 W/m 16,1 km/h (3 Bft) 97,87 %
23.03.2021 11:52 11,5 C 15,0 C 15,0 C 71 % 1025,9 hPa 0,0 l/m 2 min 0 min 476 W/m 12,9 km/h (3 Bft) 100,00 %
23.03.2021 11:54 11,5 C 15,6 C 14,5 C 71 % 1026,0 hPa 0,0 l/m 2 min 0 min 476 W/m 16,1 km/h (3 Bft) 100,00 %
23.03.2021 11:56 11,5 C 15,6 C 15,6 C 71 % 1025,9 hPa 0,0 l/m 2 min 0 min 654 W/m 19,3 km/h (3 Bft) 100,00 %
23.03.2021 11:58 11,5 C 16,1 C 16,1 C 71 % 1025,9 hPa 0,0 l/m 2 min 0 min 683 W/m 19,3 km/h (3 Bft) 100,00 %
23.03.2021 12:00 11,6 C 16,7 C 16,7 C 71 % 1025,9 hPa 0,0 l/m 2 min 0 min 649 W/m 16,1 km/h (3 Bft) 100,00 %
23.03.2021 12:02 11,7 C 16,7 C 16,7 C 71 % 1025,9 hPa 0,0 l/m 2 min 0 min 617 W/m 12,9 km/h (3 Bft) 97,87 %
23.03.2021 12:04 11,8 C 16,1 C 16,1 C 71 % 1025,8 hPa 0,0 l/m 2 min 0 min 662 W/m 16,1 km/h (3 Bft) 97,87 %
23.03.2021 12:08 12,0 C 16,7 C 15,6 C 71 % 1025,8 hPa 0,0 l/m 4 min 0 min 707 W/m 19,3 km/h (3 Bft) 98,95 %
23.03.2021 12:10 12,1 C 16,1 C 14,5 C 71 % 1025,8 hPa 0,0 l/m 2 min 0 min 742 W/m 16,1 km/h (3 Bft) 97,87 %
23.03.2021 12:12 12,2 C 15,6 C 13,9 C 70 % 1025,9 hPa 0,0 l/m 2 min 0 min 495 W/m 9,7 km/h (2 Bft) 95,74 %
23.03.2021 12:14 12,3 C 15,6 C 13,4 C 70 % 1025,8 hPa 0,0 l/m 2 min 0 min 408 W/m 9,7 km/h (2 Bft) 96,00 %
23.03.2021 12:16 12,4 C 16,1 C 13,4 C 70 % 1025,8 hPa 0,0 l/m 2 min 0 min 655 W/m 12,9 km/h (3 Bft) 97,87 %
23.03.2021 12:18 12,4 C 16,1 C 13,4 C 70 % 1025,8 hPa 0,0 l/m 2 min 0 min 652 W/m 6,4 km/h (2 Bft) 97,87 %
23.03.2021 12:20 12,5 C 16,7 C 13,4 C 70 % 1025,8 hPa 0,0 l/m 2 min 0 min 683 W/m 16,1 km/h (3 Bft) 97,83 %
23.03.2021 12:22 12,7 C 17,2 C 13,9 C 70 % 1025,8 hPa 0,0 l/m 2 min 0 min 784 W/m 12,9 km/h (3 Bft) 97,87 %
23.03.2021 12:24 12,7 C 16,7 C 13,9 C 68 % 1025,8 hPa 0,0 l/m 2 min 0 min 732 W/m 16,1 km/h (3 Bft) 97,87 %
23.03.2021 12:26 12,8 C 16,7 C 13,9 C 69 % 1025,8 hPa 0,0 l/m 2 min 0 min 555 W/m 6,4 km/h (2 Bft) 97,87 %
23.03.2021 12:28 12,8 C 16,7 C 13,4 C 69 % 1025,7 hPa 0,0 l/m 2 min 0 min 517 W/m 12,9 km/h (3 Bft) 97,87 %
23.03.2021 12:30 12,9 C 17,2 C 14,5 C 68 % 1025,7 hPa 0,0 l/m 2 min 0 min 611 W/m 16,1 km/h (3 Bft) 97,87 %
23.03.2021 12:32 12,9 C 16,7 C 13,9 C 69 % 1025,7 hPa 0,0 l/m 2 min 0 min 615 W/m 9,7 km/h (2 Bft) 95,65 %
23.03.2021 12:34 12,9 C 16,1 C 13,4 C 69 % 1025,6 hPa 0,0 l/m 2 min 0 min 415 W/m 16,1 km/h (3 Bft) 100,00 %
23.03.2021 12:36 13,0 C 17,2 C 13,9 C 68 % 1025,7 hPa 0,0 l/m 2 min 0 min 626 W/m 16,1 km/h (3 Bft) 95,74 %
23.03.2021 12:38 13,1 C 17,2 C 13,9 C 69 % 1025,6 hPa 0,0 l/m 2 min 0 min 894 W/m 9,7 km/h (2 Bft) 97,87 %
23.03.2021 12:40 13,1 C 17,8 C 13,4 C 68 % 1025,6 hPa 0,0 l/m 2 min 0 min 771 W/m 12,9 km/h (3 Bft) 97,87 %
23.03.2021 12:42 13,1 C 17,2 C 13,4 C 68 % 1025,7 hPa 0,0 l/m 2 min 0 min 432 W/m 9,7 km/h (2 Bft) 97,87 %
23.03.2021 12:44 13,1 C 17,2 C 12,8 C 68 % 1025,6 hPa 0,0 l/m 2 min 0 min 566 W/m 16,1 km/h (3 Bft) 95,65 %
23.03.2021 12:46 13,2 C 17,8 C 12,8 C 68 % 1025,6 hPa 0,0 l/m 2 min 0 min 571 W/m 9,7 km/h (2 Bft) 93,62 %
23.03.2021 12:48 13,3 C 16,7 C 12,8 C 68 % 1025,6 hPa 0,0 l/m 2 min 0 min 512 W/m 9,7 km/h (2 Bft) 95,74 %
23.03.2021 12:50 13,1 C 15,6 C 12,3 C 67 % 1025,6 hPa 0,0 l/m 2 min 0 min 399 W/m 12,9 km/h (3 Bft) 95,74 %
23.03.2021 12:52 13,0 C 15,0 C 12,3 C 67 % 1025,6 hPa 0,0 l/m 2 min 0 min 390 W/m 12,9 km/h (3 Bft) 95,74 %
23.03.2021 12:54 13,0 C 14,4 C 11,7 C 68 % 1025,6 hPa 0,0 l/m 0 min 0 min 307 W/m 6,4 km/h (2 Bft) 97,83 %
23.03.2021 12:56 12,9 C 13,9 C 11,1 C 68 % 1025,6 hPa 0,0 l/m 2 min 0 min 317 W/m 9,7 km/h (2 Bft) 97,87 %
23.03.2021 12:58 12,8 C 13,9 C 11,1 C 68 % 1025,5 hPa 0,0 l/m 2 min 0 min 380 W/m 12,9 km/h (3 Bft) 97,87 %
23.03.2021 13:00 12,8 C 14,4 C 11,1 C 69 % 1025,5 hPa 0,0 l/m 2 min 0 min 346 W/m 16,1 km/h (3 Bft) 95,74 %
23.03.2021 13:02 12,8 C 13,9 C 11,1 C 68 % 1025,5 hPa 0,0 l/m 2 min 0 min 378 W/m 12,9 km/h (3 Bft) 95,74 %
23.03.2021 13:04 12,8 C 13,9 C 11,1 C 69 % 1025,5 hPa 0,0 l/m 2 min 0 min 352 W/m 9,7 km/h (2 Bft) 97,87 %
23.03.2021 13:06 12,7 C 13,9 C 11,1 C 69 % 1025,6 hPa 0,0 l/m 2 min 0 min 315 W/m 12,9 km/h (3 Bft) 97,83 %
23.03.2021 13:08 12,7 C 13,3 C 10,6 C 70 % 1025,6 hPa 0,0 l/m 0 min 0 min 312 W/m 22,5 km/h (4 Bft) 93,62 %
23.03.2021 13:10 12,6 C 13,3 C 10,6 C 69 % 1025,5 hPa 0,0 l/m 2 min 0 min 321 W/m 16,1 km/h (3 Bft) 97,87 %
23.03.2021 13:12 12,4 C 13,3 C 10,6 C 68 % 1025,5 hPa 0,0 l/m 2 min 0 min 328 W/m 12,9 km/h (3 Bft) 97,87 %
23.03.2021 13:14 12,4 C 13,3 C 10,6 C 69 % 1025,5 hPa 0,0 l/m 2 min 0 min 316 W/m 6,4 km/h (2 Bft) 97,87 %
23.03.2021 13:16 12,4 C 13,3 C 11,1 C 70 % 1025,5 hPa 0,0 l/m 2 min 0 min 328 W/m 12,9 km/h (3 Bft) 97,87 %
23.03.2021 13:18 12,4 C 13,9 C 10,6 C 69 % 1025,4 hPa 0,0 l/m 2 min 0 min 314 W/m 12,9 km/h (3 Bft) 97,87 %
23.03.2021 13:20 12,4 C 13,9 C 11,1 C 70 % 1025,4 hPa 0,0 l/m 2 min 0 min 313 W/m 6,4 km/h (2 Bft) 95,65 %
23.03.2021 13:22 12,5 C 13,9 C 11,1 C 70 % 1025,5 hPa 0,0 l/m 0 min 0 min 280 W/m 12,9 km/h (3 Bft) 97,87 %
23.03.2021 13:24 12,5 C 13,3 C 10,6 C 70 % 1025,5 hPa 0,0 l/m 0 min 0 min 255 W/m 12,9 km/h (3 Bft) 97,87 %
23.03.2021 13:26 12,5 C 12,8 C 10,6 C 69 % 1025,6 hPa 0,0 l/m 0 min 0 min 242 W/m 6,4 km/h (2 Bft) 97,87 %
23.03.2021 13:28 12,4 C 12,8 C 10,0 C 70 % 1025,5 hPa 0,0 l/m 0 min 0 min 250 W/m 16,1 km/h (3 Bft) 100,00 %
23.03.2021 13:30 12,4 C 12,8 C 10,0 C 69 % 1025,4 hPa 0,0 l/m 0 min 0 min 283 W/m 9,7 km/h (2 Bft) 100,00 %
23.03.2021 13:32 12,4 C 12,8 C 10,0 C 69 % 1025,5 hPa 0,0 l/m 0 min 0 min 291 W/m 12,9 km/h (3 Bft) 100,00 %
23.03.2021 13:34 12,3 C 12,8 C 10,0 C 69 % 1025,4 hPa 0,0 l/m 0 min 0 min 282 W/m 16,1 km/h (3 Bft) 100,00 %
23.03.2021 13:36 12,2 C 12,8 C 10,6 C 70 % 1025,5 hPa 0,0 l/m 0 min 0 min 257 W/m 12,9 km/h (3 Bft) 100,00 %
23.03.2021 13:38 12,2 C 12,8 C 10,6 C 69 % 1025,5 hPa 0,0 l/m 0 min 0 min 252 W/m 16,1 km/h (3 Bft) 100,00 %
23.03.2021 13:40 12,2 C 13,3 C 10,6 C 70 % 1025,4 hPa 0,0 l/m 0 min 0 min 278 W/m 6,4 km/h (2 Bft) 100,00 %
23.03.2021 13:42 12,3 C 13,3 C 10,6 C 70 % 1025,4 hPa 0,0 l/m 0 min 0 min 292 W/m 9,7 km/h (2 Bft) 100,00 %
23.03.2021 13:44 12,3 C 13,3 C 10,6 C 70 % 1025,4 hPa 0,0 l/m 0 min 0 min 260 W/m 6,4 km/h (2 Bft) 100,00 %
23.03.2021 13:46 12,4 C 13,3 C 10,6 C 70 % 1025,4 hPa 0,0 l/m 0 min 0 min 248 W/m 12,9 km/h (3 Bft) 100,00 %
23.03.2021 13:48 12,4 C 13,3 C 10,6 C 70 % 1025,4 hPa 0,0 l/m 0 min 0 min 256 W/m 12,9 km/h (3 Bft) 100,00 %
23.03.2021 13:50 12,4 C 13,3 C 10,6 C 70 % 1025,4 hPa 0,0 l/m 0 min 0 min 278 W/m 19,3 km/h (3 Bft) 100,00 %
23.03.2021 13:52 12,5 C 13,9 C 10,6 C 69 % 1025,4 hPa 0,0 l/m 0 min 0 min 265 W/m 12,9 km/h (3 Bft) 97,87 %
23.03.2021 13:54 12,4 C 13,9 C 10,6 C 69 % 1025,4 hPa 0,0 l/m 0 min 0 min 287 W/m 12,9 km/h (3 Bft) 100,00 %
23.03.2021 13:56 12,4 C 13,3 C 10,6 C 69 % 1025,3 hPa 0,0 l/m 0 min 0 min 280 W/m 16,1 km/h (3 Bft) 100,00 %
23.03.2021 13:58 12,3 C 13,3 C 10,6 C 69 % 1025,4 hPa 0,0 l/m 0 min 0 min 259 W/m 9,7 km/h (2 Bft) 100,00 %
23.03.2021 14:00 12,3 C 12,8 C 10,6 C 69 % 1025,4 hPa 0,0 l/m 0 min 0 min 249 W/m 6,4 km/h (2 Bft) 100,00 %
23.03.2021 14:02 12,4 C 12,8 C 10,6 C 70 % 1025,3 hPa 0,0 l/m 0 min 0 min 237 W/m 9,7 km/h (2 Bft) 100,00 %
23.03.2021 14:04 12,4 C 12,8 C 10,6 C 70 % 1025,4 hPa 0,0 l/m 0 min 0 min 234 W/m 3,2 km/h (1 Bft) 100,00 %
23.03.2021 14:06 12,4 C 12,8 C 10,0 C 70 % 1025,3 hPa 0,0 l/m 0 min 0 min 235 W/m 6,4 km/h (2 Bft) 100,00 %
23.03.2021 14:08 12,4 C 12,8 C 10,0 C 70 % 1025,3 hPa 0,0 l/m 0 min 0 min 254 W/m 6,4 km/h (2 Bft) 100,00 %
23.03.2021 14:10 12,4 C 12,8 C 10,0 C 70 % 1025,3 hPa 0,0 l/m 0 min 0 min 277 W/m 6,4 km/h (2 Bft) 100,00 %
23.03.2021 14:12 12,4 C 13,3 C 10,6 C 70 % 1025,3 hPa 0,0 l/m 0 min 0 min 265 W/m 6,4 km/h (2 Bft) 100,00 %
23.03.2021 14:14 12,4 C 13,3 C 10,6 C 70 % 1025,3 hPa 0,0 l/m 2 min 0 min 296 W/m 6,4 km/h (2 Bft) 100,00 %
23.03.2021 14:16 12,5 C 13,9 C 10,6 C 69 % 1025,2 hPa 0,0 l/m 2 min 0 min 336 W/m 6,4 km/h (2 Bft) 100,00 %
23.03.2021 14:18 12,6 C 15,0 C 10,6 C 70 % 1025,2 hPa 0,0 l/m 2 min 0 min 332 W/m 12,9 km/h (3 Bft) 97,83 %
23.03.2021 14:20 12,6 C 14,4 C 10,6 C 69 % 1025,2 hPa 0,0 l/m 0 min 0 min 271 W/m 9,7 km/h (2 Bft) 100,00 %
23.03.2021 14:22 12,7 C 13,9 C 10,6 C 68 % 1025,3 hPa 0,0 l/m 0 min 0 min 241 W/m 12,9 km/h (3 Bft) 97,87 %
23.03.2021 14:24 12,7 C 13,3 C 10,6 C 68 % 1025,2 hPa 0,0 l/m 0 min 0 min 223 W/m 12,9 km/h (3 Bft) 97,87 %
23.03.2021 14:26 12,7 C 13,3 C 10,6 C 68 % 1025,2 hPa 0,0 l/m 0 min 0 min 225 W/m 19,3 km/h (3 Bft) 100,00 %
23.03.2021 14:28 12,6 C 13,3 C 10,6 C 68 % 1025,2 hPa 0,0 l/m 0 min 0 min 276 W/m 19,3 km/h (3 Bft) 100,00 %
23.03.2021 14:30 12,6 C 13,3 C 10,0 C 68 % 1025,2 hPa 0,0 l/m 2 min 0 min 312 W/m 12,9 km/h (3 Bft) 100,00 %
23.03.2021 14:32 12,6 C 13,3 C 10,6 C 69 % 1025,2 hPa 0,0 l/m 0 min 0 min 269 W/m 6,4 km/h (2 Bft) 95,83 %
23.03.2021 14:34 12,6 C 13,3 C 10,6 C 69 % 1025,2 hPa 0,0 l/m 0 min 0 min 241 W/m 6,4 km/h (2 Bft) 100,00 %
23.03.2021 14:36 12,6 C 13,3 C 10,6 C 69 % 1025,3 hPa 0,0 l/m 0 min 0 min 232 W/m 9,7 km/h (2 Bft) 100,00 %
23.03.2021 14:38 12,6 C 12,8 C 10,6 C 68 % 1025,2 hPa 0,0 l/m 0 min 0 min 218 W/m 12,9 km/h (3 Bft) 100,00 %
23.03.2021 14:40 12,6 C 12,8 C 10,6 C 68 % 1025,2 hPa 0,0 l/m 0 min 0 min 223 W/m 6,4 km/h (2 Bft) 100,00 %
23.03.2021 14:42 12,6 C 12,8 C 10,0 C 69 % 1025,2 hPa 0,0 l/m 0 min 0 min 242 W/m 9,7 km/h (2 Bft) 97,87 %
23.03.2021 14:44 12,6 C 13,3 C 10,0 C 68 % 1025,2 hPa 0,0 l/m 2 min 0 min 276 W/m 12,9 km/h (3 Bft) 97,87 %
23.03.2021 14:46 12,5 C 13,3 C 10,0 C 68 % 1025,1 hPa 0,0 l/m 2 min 0 min 273 W/m 16,1 km/h (3 Bft) 95,74 %
23.03.2021 14:48 12,5 C 13,3 C 10,0 C 68 % 1025,2 hPa 0,0 l/m 0 min 0 min 228 W/m 12,9 km/h (3 Bft) 97,87 %
23.03.2021 14:50 12,5 C 13,3 C 10,0 C 68 % 1025,1 hPa 0,0 l/m 0 min 0 min 207 W/m 3,2 km/h (1 Bft) 97,87 %
23.03.2021 14:52 12,5 C 12,8 C 10,0 C 68 % 1025,1 hPa 0,0 l/m 0 min 0 min 205 W/m 12,9 km/h (3 Bft) 97,83 %
23.03.2021 14:54 12,5 C 12,8 C 10,0 C 68 % 1025,1 hPa 0,0 l/m 0 min 0 min 215 W/m 6,4 km/h (2 Bft) 97,87 %
23.03.2021 14:56 12,5 C 12,8 C 10,0 C 68 % 1025,1 hPa 0,0 l/m 0 min 0 min 233 W/m 6,4 km/h (2 Bft) 97,87 %
23.03.2021 14:58 12,5 C 13,3 C 10,0 C 69 % 1025,1 hPa 0,0 l/m 0 min 0 min 238 W/m 9,7 km/h (2 Bft) 97,87 %
23.03.2021 15:00 12,5 C 13,3 C 10,0 C 69 % 1025,1 hPa 0,0 l/m 0 min 0 min 241 W/m 3,2 km/h (1 Bft) 97,87 %
23.03.2021 15:02 12,5 C 13,3 C 10,0 C 68 % 1025,1 hPa 0,0 l/m 0 min 0 min 258 W/m 9,7 km/h (2 Bft) 95,74 %
23.03.2021 15:04 12,5 C 13,3 C 10,6 C 68 % 1025,1 hPa 0,0 l/m 2 min 0 min 265 W/m 9,7 km/h (2 Bft) 93,48 %
23.03.2021 15:06 12,6 C 13,3 C 10,6 C 68 % 1025,1 hPa 0,0 l/m 2 min 0 min 278 W/m 12,9 km/h (3 Bft) 95,74 %
23.03.2021 15:08 12,6 C 13,9 C 10,6 C 67 % 1025,0 hPa 0,0 l/m 2 min 0 min 303 W/m 9,7 km/h (2 Bft) 97,87 %
23.03.2021 15:10 12,6 C 13,9 C 10,6 C 67 % 1025,0 hPa 0,0 l/m 2 min 0 min 310 W/m 6,4 km/h (2 Bft) 95,74 %
23.03.2021 15:12 12,7 C 15,0 C 10,6 C 67 % 1025,0 hPa 0,0 l/m 2 min 0 min 357 W/m 6,4 km/h (2 Bft) 93,62 %
23.03.2021 15:14 12,8 C 16,1 C 10,6 C 68 % 1025,0 hPa 0,0 l/m 2 min 0 min 381 W/m 19,3 km/h (3 Bft) 95,74 %
23.03.2021 15:16 12,9 C 16,7 C 10,6 C 67 % 1025,0 hPa 0,0 l/m 2 min 0 min 581 W/m 19,3 km/h (3 Bft) 93,48 %
23.03.2021 15:18 12,9 C 15,6 C 10,6 C 67 % 1025,0 hPa 0,0 l/m 2 min 0 min 383 W/m 12,9 km/h (3 Bft) 93,18 %
23.03.2021 15:20 13,0 C 15,0 C 10,6 C 67 % 1024,9 hPa 0,0 l/m 2 min 0 min 281 W/m 12,9 km/h (3 Bft) 93,62 %
23.03.2021 15:22 13,0 C 14,4 C 10,6 C 68 % 1025,0 hPa 0,0 l/m 2 min 0 min 254 W/m 12,9 km/h (3 Bft) 91,49 %
23.03.2021 15:24 13,0 C 14,4 C 10,6 C 68 % 1024,9 hPa 0,0 l/m 0 min 0 min 224 W/m 6,4 km/h (2 Bft) 93,62 %
23.03.2021 15:26 12,9 C 13,9 C 10,6 C 66 % 1024,9 hPa 0,0 l/m 0 min 0 min 214 W/m 22,5 km/h (4 Bft) 91,49 %
23.03.2021 15:28 12,9 C 13,9 C 10,6 C 67 % 1024,8 hPa 0,0 l/m 0 min 0 min 216 W/m 12,9 km/h (3 Bft) 93,48 %
23.03.2021 15:30 12,9 C 13,9 C 10,6 C 67 % 1024,8 hPa 0,0 l/m 0 min 0 min 222 W/m 16,1 km/h (3 Bft) 93,62 %
23.03.2021 15:32 12,9 C 14,4 C 10,6 C 67 % 1024,8 hPa 0,0 l/m 0 min 0 min 234 W/m 12,9 km/h (3 Bft) 94,00 %
23.03.2021 15:34 12,9 C 16,1 C 10,6 C 66 % 1024,8 hPa 0,0 l/m 2 min 0 min 234 W/m 6,4 km/h (2 Bft) 41,18 %
23.03.2021 15:36 12,9 C 16,1 C 10,6 C 67 % 1024,8 hPa 0,0 l/m 2 min 0 min 281 W/m 6,4 km/h (2 Bft) 95,74 %
23.03.2021 15:38 13,0 C 17,8 C 11,1 C 67 % 1024,8 hPa 0,0 l/m 2 min 0 min 403 W/m 12,9 km/h (3 Bft) 93,62 %
23.03.2021 15:40 13,1 C 17,2 C 11,1 C 67 % 1024,8 hPa 0,0 l/m 2 min 0 min 538 W/m 6,4 km/h (2 Bft) 93,62 %
23.03.2021 15:42 13,2 C 16,1 C 11,1 C 67 % 1024,8 hPa 0,0 l/m 2 min 0 min 240 W/m 12,9 km/h (3 Bft) 91,49 %
23.03.2021 15:44 13,2 C 15,0 C 11,1 C 66 % 1024,8 hPa 0,0 l/m 2 min 0 min 235 W/m 9,7 km/h (2 Bft) 93,48 %
23.03.2021 15:46 13,3 C 14,4 C 11,1 C 66 % 1024,8 hPa 0,0 l/m 2 min 0 min 238 W/m 9,7 km/h (2 Bft) 91,49 %
23.03.2021 15:48 13,2 C 14,4 C 10,6 C 66 % 1024,8 hPa 0,0 l/m 2 min 0 min 226 W/m 12,9 km/h (3 Bft) 93,62 %
23.03.2021 15:50 13,1 C 14,4 C 10,6 C 65 % 1024,8 hPa 0,0 l/m 0 min 0 min 213 W/m 12,9 km/h (3 Bft) 97,87 %
23.03.2021 15:52 13,1 C 14,4 C 10,6 C 65 % 1024,8 hPa 0,0 l/m 0 min 0 min 210 W/m 6,4 km/h (2 Bft) 97,87 %
23.03.2021 15:54 13,1 C 13,9 C 10,6 C 65 % 1024,8 hPa 0,0 l/m 0 min 0 min 210 W/m 6,4 km/h (2 Bft) 95,65 %
23.03.2021 15:56 13,1 C 14,4 C 10,6 C 66 % 1024,8 hPa 0,0 l/m 2 min 0 min 247 W/m 3,2 km/h (1 Bft) 97,87 %
23.03.2021 15:58 13,1 C 14,4 C 10,6 C 66 % 1024,8 hPa 0,0 l/m 2 min 0 min 272 W/m 9,7 km/h (2 Bft) 95,74 %
23.03.2021 16:00 13,1 C 15,0 C 10,6 C 65 % 1024,8 hPa 0,0 l/m 2 min 0 min 246 W/m 16,1 km/h (3 Bft) 100,00 %
23.03.2021 16:02 13,1 C 15,6 C 10,6 C 66 % 1024,7 hPa 0,0 l/m 2 min 0 min 251 W/m 12,9 km/h (3 Bft) 100,00 %
23.03.2021 16:04 13,1 C 16,7 C 10,6 C 67 % 1024,7 hPa 0,0 l/m 2 min 0 min 314 W/m 6,4 km/h (2 Bft) 97,92 %
23.03.2021 16:06 13,1 C 16,1 C 10,6 C 66 % 1024,7 hPa 0,0 l/m 2 min 0 min 254 W/m 6,4 km/h (2 Bft) 100,00 %
23.03.2021 16:08 13,2 C 15,6 C 10,6 C 66 % 1024,7 hPa 0,0 l/m 2 min 0 min 252 W/m 6,4 km/h (2 Bft) 97,87 %
23.03.2021 16:10 13,3 C 15,0 C 10,6 C 66 % 1024,7 hPa 0,0 l/m 2 min 0 min 242 W/m 6,4 km/h (2 Bft) 100,00 %
23.03.2021 16:12 13,2 C 14,4 C 10,6 C 66 % 1024,7 hPa 0,0 l/m 2 min 0 min 217 W/m 6,4 km/h (2 Bft) 100,00 %
23.03.2021 16:14 13,2 C 13,9 C 10,6 C 65 % 1024,7 hPa 0,0 l/m 2 min 0 min 193 W/m 6,4 km/h (2 Bft) 100,00 %
23.03.2021 16:16 13,2 C 13,9 C 10,6 C 65 % 1024,7 hPa 0,0 l/m 0 min 0 min 164 W/m 3,2 km/h (1 Bft) 100,00 %
23.03.2021 16:18 13,1 C 13,3 C 10,6 C 66 % 1024,7 hPa 0,0 l/m 0 min 0 min 136 W/m 6,4 km/h (2 Bft) 100,00 %
23.03.2021 16:20 13,1 C 13,3 C 10,0 C 65 % 1024,6 hPa 0,0 l/m 0 min 0 min 121 W/m 16,1 km/h (3 Bft) 100,00 %
23.03.2021 16:22 13,0 C 12,8 C 10,0 C 65 % 1024,6 hPa 0,0 l/m 0 min 0 min 117 W/m 6,4 km/h (2 Bft) 100,00 %
23.03.2021 16:24 13,0 C 12,8 C 10,0 C 66 % 1024,6 hPa 0,0 l/m 0 min 0 min 119 W/m 6,4 km/h (2 Bft) 97,87 %
23.03.2021 16:26 12,9 C 12,8 C 10,0 C 65 % 1024,6 hPa 0,0 l/m 0 min 0 min 126 W/m 6,4 km/h (2 Bft) 100,00 %
23.03.2021 16:28 12,9 C 12,8 C 10,0 C 66 % 1024,6 hPa 0,0 l/m 0 min 0 min 122 W/m 12,9 km/h (3 Bft) 100,00 %
23.03.2021 16:30 12,9 C 12,8 C 10,0 C 66 % 1024,6 hPa 0,0 l/m 0 min 0 min 116 W/m 6,4 km/h (2 Bft) 100,00 %
23.03.2021 16:32 12,9 C 12,8 C 10,0 C 67 % 1024,6 hPa 0,0 l/m 0 min 0 min 119 W/m 6,4 km/h (2 Bft) 100,00 %
23.03.2021 16:34 12,9 C 12,8 C 10,0 C 67 % 1024,6 hPa 0,0 l/m 0 min 0 min 123 W/m 6,4 km/h (2 Bft) 100,00 %
23.03.2021 16:36 12,8 C 12,8 C 10,0 C 67 % 1024,6 hPa 0,0 l/m 0 min 0 min 127 W/m 6,4 km/h (2 Bft) 100,00 %
23.03.2021 16:38 12,8 C 12,8 C 10,0 C 67 % 1024,6 hPa 0,0 l/m 0 min 0 min 129 W/m 9,7 km/h (2 Bft) 100,00 %
23.03.2021 16:40 12,8 C 12,8 C 10,0 C 67 % 1024,6 hPa 0,0 l/m 0 min 0 min 132 W/m 6,4 km/h (2 Bft) 100,00 %
23.03.2021 16:42 12,8 C 13,3 C 9,5 C 67 % 1024,6 hPa 0,0 l/m 0 min 0 min 149 W/m 6,4 km/h (2 Bft) 100,00 %
23.03.2021 16:44 12,8 C 13,9 C 10,0 C 67 % 1024,5 hPa 0,0 l/m 0 min 0 min 154 W/m 3,2 km/h (1 Bft) 97,83 %
23.03.2021 16:46 12,8 C 15,6 C 10,0 C 66 % 1024,6 hPa 0,0 l/m 2 min 0 min 267 W/m 3,2 km/h (1 Bft) 100,00 %
23.03.2021 16:48 12,9 C 16,7 C 10,0 C 67 % 1024,6 hPa 0,0 l/m 2 min 0 min 330 W/m 3,2 km/h (1 Bft) 100,00 %
23.03.2021 16:50 12,9 C 17,8 C 10,0 C 67 % 1024,5 hPa 0,0 l/m 2 min 0 min 318 W/m 6,4 km/h (2 Bft) 100,00 %
23.03.2021 16:52 13,0 C 18,3 C 10,0 C 67 % 1024,5 hPa 0,0 l/m 2 min 0 min 276 W/m 9,7 km/h (2 Bft) 97,87 %
23.03.2021 16:54 13,1 C 17,8 C 10,0 C 65 % 1024,5 hPa 0,0 l/m 2 min 0 min 228 W/m 3,2 km/h (1 Bft) 97,83 %
23.03.2021 16:56 13,1 C 17,8 C 10,0 C 65 % 1024,5 hPa 0,0 l/m 2 min 0 min 283 W/m 3,2 km/h (1 Bft) 100,00 %
23.03.2021 16:58 13,3 C 18,3 C 10,0 C 66 % 1024,5 hPa 0,0 l/m 2 min 0 min 318 W/m 9,7 km/h (2 Bft) 100,00 %
23.03.2021 17:00 13,4 C 17,2 C 10,0 C 65 % 1024,5 hPa 0,0 l/m 2 min 0 min 274 W/m 6,4 km/h (2 Bft) 100,00 %
23.03.2021 17:02 13,4 C 15,6 C 10,0 C 65 % 1024,5 hPa 0,0 l/m 2 min 0 min 175 W/m 6,4 km/h (2 Bft) 100,00 %
23.03.2021 17:04 13,4 C 15,0 C 10,0 C 64 % 1024,5 hPa 0,0 l/m 2 min 0 min 150 W/m 9,7 km/h (2 Bft) 100,00 %
23.03.2021 17:06 13,4 C 14,4 C 10,0 C 64 % 1024,5 hPa 0,0 l/m 2 min 0 min 146 W/m 6,4 km/h (2 Bft) 100,00 %
23.03.2021 17:08 13,4 C 13,9 C 10,0 C 65 % 1024,5 hPa 0,0 l/m 0 min 0 min 121 W/m 6,4 km/h (2 Bft) 100,00 %
23.03.2021 17:10 13,4 C 13,9 C 10,0 C 65 % 1024,5 hPa 0,0 l/m 0 min 0 min 122 W/m 6,4 km/h (2 Bft) 100,00 %
23.03.2021 17:12 13,3 C 13,3 C 10,0 C 65 % 1024,5 hPa 0,0 l/m 2 min 0 min 125 W/m 6,4 km/h (2 Bft) 100,00 %
23.03.2021 17:14 13,3 C 13,3 C 10,0 C 65 % 1024,4 hPa 0,0 l/m 2 min 0 min 128 W/m 3,2 km/h (1 Bft) 100,00 %
23.03.2021 17:16 13,2 C 13,3 C 10,0 C 65 % 1024,4 hPa 0,0 l/m 2 min 0 min 130 W/m 6,4 km/h (2 Bft) 97,87 %
23.03.2021 17:18 13,2 C 13,3 C 9,5 C 65 % 1024,4 hPa 0,0 l/m 2 min 0 min 129 W/m 3,2 km/h (1 Bft) 100,00 %
23.03.2021 17:20 13,1 C 13,3 C 9,5 C 65 % 1024,4 hPa 0,0 l/m 2 min 0 min 130 W/m 6,4 km/h (2 Bft) 100,00 %
23.03.2021 17:22 13,1 C 13,3 C 9,5 C 65 % 1024,4 hPa 0,0 l/m 2 min 0 min 134 W/m 9,7 km/h (2 Bft) 100,00 %
23.03.2021 17:24 13,0 C 12,8 C 9,5 C 64 % 1024,4 hPa 0,0 l/m 0 min 0 min 109 W/m 6,4 km/h (2 Bft) 100,00 %
23.03.2021 17:26 12,9 C 12,8 C 9,5 C 64 % 1024,3 hPa 0,0 l/m 0 min 0 min 99 W/m 12,9 km/h (3 Bft) 100,00 %
23.03.2021 17:28 12,9 C 12,8 C 9,5 C 64 % 1024,3 hPa 0,0 l/m 0 min 0 min 95 W/m 6,4 km/h (2 Bft) 100,00 %
23.03.2021 17:30 12,9 C 12,8 C 9,5 C 65 % 1024,3 hPa 0,0 l/m 0 min 0 min 80 W/m 6,4 km/h (2 Bft) 100,00 %
23.03.2021 17:32 12,8 C 12,2 C 9,5 C 65 % 1024,3 hPa 0,0 l/m 0 min 0 min 66 W/m 6,4 km/h (2 Bft) 100,00 %
23.03.2021 17:34 12,8 C 12,2 C 8,9 C 65 % 1024,3 hPa 0,0 l/m 0 min 0 min 63 W/m 9,7 km/h (2 Bft) 100,00 %
23.03.2021 17:36 12,8 C 12,2 C 8,9 C 65 % 1024,3 hPa 0,0 l/m 0 min 0 min 63 W/m 6,4 km/h (2 Bft) 100,00 %
23.03.2021 17:38 12,8 C 12,2 C 8,9 C 65 % 1024,3 hPa 0,0 l/m 0 min 0 min 70 W/m 6,4 km/h (2 Bft) 97,83 %
23.03.2021 17:40 12,7 C 12,8 C 8,9 C 65 % 1024,3 hPa 0,0 l/m 2 min 0 min 99 W/m 6,4 km/h (2 Bft) 97,87 %
23.03.2021 17:42 12,7 C 13,3 C 8,9 C 65 % 1024,3 hPa 0,0 l/m 2 min 0 min 104 W/m 6,4 km/h (2 Bft) 100,00 %
23.03.2021 17:44 12,7 C 13,3 C 8,9 C 66 % 1024,4 hPa 0,0 l/m 2 min 0 min 96 W/m 6,4 km/h (2 Bft) 100,00 %
23.03.2021 17:46 12,6 C 13,9 C 8,9 C 65 % 1024,4 hPa 0,0 l/m 2 min 0 min 91 W/m 3,2 km/h (1 Bft) 100,00 %
23.03.2021 17:48 12,6 C 13,9 C 8,9 C 65 % 1024,4 hPa 0,0 l/m 2 min 0 min 89 W/m 3,2 km/h (1 Bft) 100,00 %
23.03.2021 17:50 12,6 C 13,3 C 9,5 C 65 % 1024,3 hPa 0,0 l/m 2 min 0 min 80 W/m 6,4 km/h (2 Bft) 97,83 %
23.03.2021 17:52 12,6 C 13,3 C 8,9 C 66 % 1024,4 hPa 0,0 l/m 0 min 0 min 60 W/m 3,2 km/h (1 Bft) 95,74 %
23.03.2021 17:54 12,7 C 12,8 C 8,9 C 66 % 1024,4 hPa 0,0 l/m 0 min 0 min 59 W/m 6,4 km/h (2 Bft) 97,37 %
23.03.2021 17:56 12,7 C 12,8 C 8,9 C 66 % 1024,4 hPa 0,0 l/m 0 min 0 min 58 W/m 6,4 km/h (2 Bft) 95,74 %
23.03.2021 17:58 12,7 C 12,2 C 8,9 C 66 % 1024,4 hPa 0,0 l/m 0 min 0 min 54 W/m 9,7 km/h (2 Bft) 95,74 %
23.03.2021 18:00 12,6 C 12,2 C 8,9 C 66 % 1024,4 hPa 0,0 l/m 0 min 0 min 54 W/m 12,9 km/h (3 Bft) 93,75 %
23.03.2021 18:02 12,6 C 12,2 C 8,9 C 66 % 1024,4 hPa 0,0 l/m 0 min 0 min 54 W/m 6,4 km/h (2 Bft) 95,83 %
23.03.2021 18:04 12,5 C 12,2 C 8,9 C 66 % 1024,4 hPa 0,0 l/m 0 min 0 min 55 W/m 9,7 km/h (2 Bft) 93,48 %
23.03.2021 18:08 12,5 C 11,7 C 8,9 C 67 % 1024,3 hPa 0,0 l/m 0 min 0 min 52 W/m 3,2 km/h (1 Bft) 95,79 %
23.03.2021 18:10 12,5 C 11,7 C 8,9 C 67 % 1024,4 hPa 0,0 l/m 0 min 0 min 47 W/m 3,2 km/h (1 Bft) 95,74 %
23.03.2021 18:12 12,5 C 11,7 C 8,9 C 67 % 1024,4 hPa 0,0 l/m 0 min 0 min 43 W/m 3,2 km/h (1 Bft) 93,62 %
23.03.2021 18:14 12,4 C 11,7 C 8,9 C 67 % 1024,4 hPa 0,0 l/m 0 min 0 min 37 W/m 3,2 km/h (1 Bft) 93,48 %
23.03.2021 18:16 12,4 C 11,7 C 8,9 C 67 % 1024,4 hPa 0,0 l/m 0 min 0 min 36 W/m 3,2 km/h (1 Bft) 91,49 %
23.03.2021 18:18 12,4 C 11,7 C 8,9 C 67 % 1024,3 hPa 0,0 l/m 0 min 0 min 35 W/m 3,2 km/h (1 Bft) 93,62 %
23.03.2021 18:20 12,4 C 11,7 C 8,9 C 67 % 1024,4 hPa 0,0 l/m 0 min 0 min 35 W/m 3,2 km/h (1 Bft) 93,62 %
23.03.2021 18:22 12,4 C 11,7 C 8,4 C 67 % 1024,4 hPa 0,0 l/m 2 min 0 min 35 W/m 3,2 km/h (1 Bft) 91,11 %
23.03.2021 18:24 12,3 C 11,1 C 8,4 C 67 % 1024,4 hPa 0,0 l/m 2 min 0 min 33 W/m 6,4 km/h (2 Bft) 94,00 %
23.03.2021 18:26 12,3 C 11,1 C 8,4 C 67 % 1024,4 hPa 0,0 l/m 2 min 0 min 30 W/m 9,7 km/h (2 Bft) 91,30 %
23.03.2021 18:28 12,2 C 11,1 C 8,4 C 67 % 1024,4 hPa 0,0 l/m 2 min 0 min 26 W/m 3,2 km/h (1 Bft) 91,49 %
23.03.2021 18:30 12,1 C 11,1 C 8,4 C 68 % 1024,5 hPa 0,0 l/m 2 min 0 min 24 W/m 3,2 km/h (1 Bft) 93,62 %
23.03.2021 18:32 12,1 C 11,1 C 8,4 C 68 % 1024,5 hPa 0,0 l/m 2 min 0 min 21 W/m 6,4 km/h (2 Bft) 91,67 %
23.03.2021 18:34 12,0 C 11,1 C 8,4 C 68 % 1024,5 hPa 0,0 l/m 0 min 0 min 18 W/m 3,2 km/h (1 Bft) 91,49 %
23.03.2021 18:36 12,0 C 10,6 C 8,4 C 68 % 1024,5 hPa 0,0 l/m 0 min 0 min 16 W/m 3,2 km/h (1 Bft) 95,74 %
23.03.2021 18:38 11,9 C 10,6 C 8,4 C 68 % 1024,5 hPa 0,0 l/m 0 min 0 min 15 W/m 9,7 km/h (2 Bft) 95,65 %
23.03.2021 18:40 11,9 C 10,6 C 7,8 C 69 % 1024,6 hPa 0,0 l/m 0 min 0 min 13 W/m 12,9 km/h (3 Bft) 95,74 %
23.03.2021 18:42 11,8 C 10,6 C 7,8 C 69 % 1024,6 hPa 0,0 l/m 0 min 0 min 11 W/m 3,2 km/h (1 Bft) 95,74 %
23.03.2021 18:44 11,8 C 10,6 C 7,8 C 69 % 1024,5 hPa 0,0 l/m 0 min 0 min 10 W/m 12,9 km/h (3 Bft) 95,74 %
23.03.2021 18:46 11,6 C 10,6 C 7,8 C 69 % 1024,5 hPa 0,0 l/m 0 min 0 min 8 W/m 9,7 km/h (2 Bft) 93,62 %
23.03.2021 18:48 11,5 C 10,0 C 7,8 C 69 % 1024,5 hPa 0,0 l/m 0 min 0 min 7 W/m 3,2 km/h (1 Bft) 93,62 %
23.03.2021 18:50 11,5 C 10,0 C 7,8 C 70 % 1024,5 hPa 0,0 l/m 0 min 0 min 6 W/m 6,4 km/h (2 Bft) 95,65 %
23.03.2021 18:52 11,4 C 10,0 C 7,8 C 70 % 1024,5 hPa 0,0 l/m 0 min 0 min 5 W/m 6,4 km/h (2 Bft) 95,74 %
23.03.2021 18:54 11,4 C 10,0 C 7,3 C 70 % 1024,5 hPa 0,0 l/m 0 min 0 min 4 W/m 9,7 km/h (2 Bft) 97,87 %
23.03.2021 18:56 11,3 C 10,0 C 7,3 C 70 % 1024,5 hPa 0,0 l/m 0 min 0 min 0 W/m 6,4 km/h (2 Bft) 97,87 %
23.03.2021 18:58 11,3 C 10,0 C 7,3 C 70 % 1024,5 hPa 0,0 l/m 0 min 0 min 0 W/m 9,7 km/h (2 Bft) 97,87 %
23.03.2021 19:00 11,2 C 10,0 C 7,3 C 71 % 1024,5 hPa 0,0 l/m 0 min 0 min 0 W/m 9,7 km/h (2 Bft) 97,87 %
23.03.2021 19:02 11,1 C 10,0 C 7,3 C 71 % 1024,5 hPa 0,0 l/m 0 min 0 min 0 W/m 9,7 km/h (2 Bft) 100,00 %
23.03.2021 19:04 11,1 C 10,0 C 7,3 C 72 % 1024,5 hPa 0,0 l/m 0 min 0 min 0 W/m 6,4 km/h (2 Bft) 100,00 %
23.03.2021 19:06 11,0 C 9,4 C 7,3 C 72 % 1024,6 hPa 0,0 l/m 0 min 0 min 0 W/m 6,4 km/h (2 Bft) 100,00 %
23.03.2021 19:08 11,0 C 9,4 C 7,3 C 72 % 1024,6 hPa 0,0 l/m 0 min 0 min 0 W/m 6,4 km/h (2 Bft) 97,87 %
23.03.2021 19:10 10,9 C 9,4 C 7,3 C 72 % 1024,6 hPa 0,0 l/m 0 min 0 min 0 W/m 3,2 km/h (1 Bft) 97,87 %
23.03.2021 19:12 10,9 C 9,4 C 7,3 C 72 % 1024,6 hPa 0,0 l/m 0 min 0 min 0 W/m 3,2 km/h (1 Bft) 97,83 %
23.03.2021 19:14 10,9 C 9,4 C 6,7 C 73 % 1024,6 hPa 0,0 l/m 0 min 0 min 0 W/m 6,4 km/h (2 Bft) 100,00 %
23.03.2021 19:16 10,8 C 9,4 C 6,7 C 73 % 1024,7 hPa 0,0 l/m 0 min 0 min 0 W/m 3,2 km/h (1 Bft) 100,00 %
23.03.2021 19:18 10,7 C 9,4 C 6,7 C 73 % 1024,6 hPa 0,0 l/m 0 min 0 min 0 W/m 6,4 km/h (2 Bft) 97,87 %
23.03.2021 19:20 10,6 C 8,9 C 6,7 C 73 % 1024,6 hPa 0,0 l/m 0 min 0 min 0 W/m 6,4 km/h (2 Bft) 100,00 %
23.03.2021 19:22 10,5 C 8,9 C 6,7 C 74 % 1024,7 hPa 0,0 l/m 0 min 0 min 0 W/m 3,2 km/h (1 Bft) 97,87 %
23.03.2021 19:24 10,5 C 8,9 C 6,7 C 74 % 1024,7 hPa 0,0 l/m 0 min 0 min 0 W/m 6,4 km/h (2 Bft) 100,00 %
23.03.2021 19:26 10,4 C 8,9 C 6,7 C 74 % 1024,7 hPa 0,0 l/m 0 min 0 min 0 W/m 3,2 km/h (1 Bft) 97,87 %
23.03.2021 19:28 10,4 C 8,9 C 6,7 C 74 % 1024,7 hPa 0,0 l/m 0 min 0 min 0 W/m 3,2 km/h (1 Bft) 100,00 %
23.03.2021 19:30 10,3 C 8,9 C 6,7 C 75 % 1024,7 hPa 0,0 l/m 0 min 0 min 0 W/m 9,7 km/h (2 Bft) 100,00 %
23.03.2021 19:32 10,2 C 8,9 C 6,7 C 75 % 1024,7 hPa 0,0 l/m 0 min 0 min 0 W/m 9,7 km/h (2 Bft) 98,18 %
23.03.2021 19:34 10,1 C 8,9 C 6,7 C 75 % 1024,7 hPa 0,0 l/m 0 min 0 min 0 W/m 9,7 km/h (2 Bft) 100,00 %
23.03.2021 19:36 10,1 C 8,9 C 6,7 C 75 % 1024,7 hPa 0,0 l/m 0 min 0 min 0 W/m 6,4 km/h (2 Bft) 100,00 %
23.03.2021 19:38 10,0 C 8,9 C 6,1 C 75 % 1024,7 hPa 0,0 l/m 0 min 0 min 0 W/m 6,4 km/h (2 Bft) 100,00 %
23.03.2021 19:40 10,0 C 8,9 C 6,1 C 76 % 1024,7 hPa 0,0 l/m 0 min 0 min 0 W/m 3,2 km/h (1 Bft) 100,00 %
23.03.2021 19:42 10,0 C 8,3 C 6,1 C 76 % 1024,7 hPa 0,0 l/m 0 min 0 min 0 W/m 3,2 km/h (1 Bft) 100,00 %
23.03.2021 19:44 9,9 C 8,3 C 6,1 C 76 % 1024,7 hPa 0,0 l/m 0 min 0 min 0 W/m 6,4 km/h (2 Bft) 100,00 %
23.03.2021 19:46 9,9 C 8,3 C 6,1 C 76 % 1024,7 hPa 0,0 l/m 0 min 0 min 0 W/m 3,2 km/h (1 Bft) 97,87 %
23.03.2021 19:48 9,8 C 8,3 C 6,1 C 76 % 1024,7 hPa 0,0 l/m 0 min 0 min 0 W/m 3,2 km/h (1 Bft) 100,00 %
23.03.2021 19:50 9,8 C 8,3 C 6,1 C 76 % 1024,7 hPa 0,0 l/m 0 min 0 min 0 W/m 6,4 km/h (2 Bft) 100,00 %
23.03.2021 19:52 9,7 C 8,3 C 6,1 C 77 % 1024,8 hPa 0,0 l/m 0 min 0 min 0 W/m 3,2 km/h (1 Bft) 100,00 %
23.03.2021 19:54 9,7 C 8,3 C 6,1 C 77 % 1024,8 hPa 0,0 l/m 0 min 0 min 0 W/m 6,4 km/h (2 Bft) 100,00 %
23.03.2021 19:56 9,6 C 8,3 C 6,1 C 77 % 1024,8 hPa 0,0 l/m 0 min 0 min 0 W/m 6,4 km/h (2 Bft) 97,87 %
23.03.2021 19:58 9,6 C 8,3 C 6,1 C 77 % 1024,8 hPa 0,0 l/m 0 min 0 min 0 W/m 3,2 km/h (1 Bft) 100,00 %
23.03.2021 20:00 9,5 C 8,3 C 6,1 C 77 % 1024,8 hPa 0,0 l/m 0 min 0 min 0 W/m 9,7 km/h (2 Bft) 100,00 %
23.03.2021 20:02 9,5 C 8,3 C 6,1 C 77 % 1024,9 hPa 0,0 l/m 0 min 0 min 0 W/m 9,7 km/h (2 Bft) 97,87 %
23.03.2021 20:04 9,5 C 8,3 C 6,1 C 77 % 1024,9 hPa 0,0 l/m 0 min 0 min 0 W/m 9,7 km/h (2 Bft) 100,00 %
23.03.2021 20:06 9,4 C 8,3 C 6,1 C 78 % 1024,9 hPa 0,0 l/m 0 min 0 min 0 W/m 3,2 km/h (1 Bft) 100,00 %
23.03.2021 20:08 9,4 C 8,3 C 6,1 C 78 % 1024,9 hPa 0,0 l/m 0 min 0 min 0 W/m 6,4 km/h (2 Bft) 100,00 %
23.03.2021 20:10 9,4 C 8,3 C 6,1 C 78 % 1024,9 hPa 0,0 l/m 0 min 0 min 0 W/m 9,7 km/h (2 Bft) 97,87 %
23.03.2021 20:12 9,3 C 8,3 C 5,6 C 78 % 1024,9 hPa 0,0 l/m 0 min 0 min 0 W/m 6,4 km/h (2 Bft) 100,00 %
23.03.2021 20:14 9,3 C 7,8 C 5,6 C 78 % 1024,9 hPa 0,0 l/m 0 min 0 min 0 W/m 6,4 km/h (2 Bft) 100,00 %
23.03.2021 20:16 9,2 C 7,8 C 5,6 C 78 % 1024,9 hPa 0,0 l/m 0 min 0 min 0 W/m 6,4 km/h (2 Bft) 97,87 %
23.03.2021 20:18 9,2 C 7,8 C 5,6 C 78 % 1024,9 hPa 0,0 l/m 0 min 0 min 0 W/m 9,7 km/h (2 Bft) 100,00 %
23.03.2021 20:20 9,1 C 7,8 C 5,6 C 78 % 1024,9 hPa 0,0 l/m 0 min 0 min 0 W/m 9,7 km/h (2 Bft) 100,00 %
23.03.2021 20:22 9,1 C 7,8 C 5,6 C 78 % 1024,9 hPa 0,0 l/m 0 min 0 min 0 W/m 6,4 km/h (2 Bft) 97,87 %
23.03.2021 20:24 9,1 C 7,8 C 5,6 C 78 % 1024,9 hPa 0,0 l/m 0 min 0 min 0 W/m 6,4 km/h (2 Bft) 97,83 %
23.03.2021 20:26 9,0 C 7,8 C 5,6 C 79 % 1024,9 hPa 0,0 l/m 0 min 0 min 0 W/m 12,9 km/h (3 Bft) 100,00 %
23.03.2021 20:28 9,0 C 7,8 C 5,6 C 79 % 1024,9 hPa 0,0 l/m 0 min 0 min 0 W/m 3,2 km/h (1 Bft) 100,00 %
23.03.2021 20:30 9,0 C 7,8 C 5,6 C 79 % 1024,9 hPa 0,0 l/m 0 min 0 min 0 W/m 9,7 km/h (2 Bft) 100,00 %
23.03.2021 20:32 9,0 C 7,8 C 5,6 C 79 % 1024,9 hPa 0,0 l/m 0 min 0 min 0 W/m 9,7 km/h (2 Bft) 97,92 %
23.03.2021 20:34 8,9 C 7,8 C 5,6 C 79 % 1024,9 hPa 0,0 l/m 0 min 0 min 0 W/m 6,4 km/h (2 Bft) 95,74 %
23.03.2021 20:36 8,9 C 7,8 C 5,6 C 79 % 1024,9 hPa 0,0 l/m 0 min 0 min 0 W/m 6,4 km/h (2 Bft) 97,83 %
23.03.2021 20:38 8,9 C 7,8 C 5,6 C 79 % 1024,9 hPa 0,0 l/m 0 min 0 min 0 W/m 9,7 km/h (2 Bft) 95,92 %
23.03.2021 20:40 8,9 C 7,8 C 5,6 C 79 % 1024,9 hPa 0,0 l/m 0 min 0 min 0 W/m 9,7 km/h (2 Bft) 97,87 %
23.03.2021 20:42 8,8 C 7,8 C 5,6 C 79 % 1024,9 hPa 0,0 l/m 0 min 0 min 0 W/m 12,9 km/h (3 Bft) 97,87 %
23.03.2021 20:44 8,8 C 7,8 C 5,6 C 79 % 1024,9 hPa 0,0 l/m 0 min 0 min 0 W/m 12,9 km/h (3 Bft) 97,87 %
23.03.2021 20:46 8,8 C 7,8 C 5,6 C 79 % 1024,9 hPa 0,0 l/m 0 min 0 min 0 W/m 6,4 km/h (2 Bft) 93,62 %
23.03.2021 20:48 8,8 C 7,8 C 5,6 C 79 % 1024,9 hPa 0,0 l/m 0 min 0 min 0 W/m 6,4 km/h (2 Bft) 97,83 %
23.03.2021 20:50 8,8 C 7,8 C 5,6 C 79 % 1024,9 hPa 0,0 l/m 0 min 0 min 0 W/m 9,7 km/h (2 Bft) 93,62 %
23.03.2021 20:52 8,7 C 7,8 C 5,6 C 79 % 1024,9 hPa 0,0 l/m 0 min 0 min 0 W/m 6,4 km/h (2 Bft) 100,00 %
23.03.2021 20:54 8,7 C 7,8 C 5,6 C 79 % 1024,9 hPa 0,0 l/m 0 min 0 min 0 W/m 9,7 km/h (2 Bft) 93,62 %
23.03.2021 20:56 8,6 C 7,8 C 5,6 C 79 % 1025,0 hPa 0,0 l/m 0 min 0 min 0 W/m 9,7 km/h (2 Bft) 96,36 %
23.03.2021 20:58 8,6 C 7,8 C 5,0 C 79 % 1024,9 hPa 0,0 l/m 0 min 0 min 0 W/m 6,4 km/h (2 Bft) 95,74 %
23.03.2021 21:00 8,6 C 7,8 C 5,0 C 80 % 1025,0 hPa 0,0 l/m 0 min 0 min 0 W/m 6,4 km/h (2 Bft) 95,65 %
23.03.2021 21:02 8,6 C 7,2 C 5,0 C 80 % 1025,0 hPa 0,0 l/m 0 min 0 min 0 W/m 3,2 km/h (1 Bft) 95,83 %
23.03.2021 21:04 8,5 C 7,2 C 5,0 C 80 % 1025,0 hPa 0,0 l/m 0 min 0 min 0 W/m 9,7 km/h (2 Bft) 95,74 %
23.03.2021 21:06 8,5 C 7,2 C 5,0 C 80 % 1025,0 hPa 0,0 l/m 0 min 0 min 0 W/m 6,4 km/h (2 Bft) 93,62 %
23.03.2021 21:08 8,5 C 7,2 C 5,0 C 80 % 1025,0 hPa 0,0 l/m 0 min 0 min 0 W/m 6,4 km/h (2 Bft) 93,62 %
23.03.2021 21:10 8,5 C 7,2 C 5,0 C 80 % 1025,0 hPa 0,0 l/m 0 min 0 min 0 W/m 6,4 km/h (2 Bft) 95,74 %
23.03.2021 21:12 8,4 C 7,2 C 5,0 C 80 % 1024,9 hPa 0,0 l/m 0 min 0 min 0 W/m 9,7 km/h (2 Bft) 97,83 %
23.03.2021 21:14 8,4 C 7,2 C 5,0 C 80 % 1024,9 hPa 0,0 l/m 0 min 0 min 0 W/m 6,4 km/h (2 Bft) 95,74 %
23.03.2021 21:16 8,4 C 7,2 C 5,0 C 80 % 1025,0 hPa 0,0 l/m 0 min 0 min 0 W/m 9,7 km/h (2 Bft) 95,74 %
23.03.2021 21:18 8,4 C 7,2 C 5,0 C 80 % 1024,9 hPa 0,0 l/m 0 min 0 min 0 W/m 6,4 km/h (2 Bft) 97,87 %
23.03.2021 21:20 8,4 C 7,2 C 5,0 C 80 % 1024,9 hPa 0,0 l/m 0 min 0 min 0 W/m 6,4 km/h (2 Bft) 97,87 %
23.03.2021 21:22 8,3 C 7,2 C 5,0 C 80 % 1024,9 hPa 0,0 l/m 0 min 0 min 0 W/m 6,4 km/h (2 Bft) 97,87 %
23.03.2021 21:24 8,3 C 7,2 C 5,0 C 80 % 1024,9 hPa 0,0 l/m 0 min 0 min 0 W/m 6,4 km/h (2 Bft) 95,65 %
23.03.2021 21:26 8,3 C 7,2 C 5,0 C 80 % 1024,9 hPa 0,0 l/m 0 min 0 min 0 W/m 3,2 km/h (1 Bft) 93,62 %
23.03.2021 21:28 8,3 C 7,2 C 5,0 C 81 % 1024,9 hPa 0,0 l/m 0 min 0 min 0 W/m 3,2 km/h (1 Bft) 97,87 %
23.03.2021 21:30 8,2 C 7,2 C 5,0 C 81 % 1024,8 hPa 0,0 l/m 0 min 0 min 0 W/m 6,4 km/h (2 Bft) 97,87 %
23.03.2021 21:32 8,1 C 7,2 C 5,0 C 81 % 1024,9 hPa 0,0 l/m 0 min 0 min 0 W/m 6,4 km/h (2 Bft) 97,87 %
23.03.2021 21:34 8,1 C 7,2 C 5,0 C 81 % 1024,8 hPa 0,0 l/m 0 min 0 min 0 W/m 3,2 km/h (1 Bft) 97,87 %
23.03.2021 21:36 8,1 C 7,2 C 4,5 C 81 % 1024,8 hPa 0,0 l/m 0 min 0 min 0 W/m 6,4 km/h (2 Bft) 95,65 %
23.03.2021 21:38 8,1 C 6,7 C 4,5 C 81 % 1024,8 hPa 0,0 l/m 0 min 0 min 0 W/m 3,2 km/h (1 Bft) 97,87 %
23.03.2021 21:40 8,0 C 6,7 C 4,5 C 81 % 1024,8 hPa 0,0 l/m 0 min 0 min 0 W/m 6,4 km/h (2 Bft) 97,87 %
23.03.2021 21:42 8,0 C 6,7 C 4,5 C 81 % 1024,8 hPa 0,0 l/m 0 min 0 min 0 W/m 0,0 km/h (0 Bft) 97,87 %
23.03.2021 21:44 8,0 C 6,7 C 4,5 C 81 % 1024,8 hPa 0,0 l/m 0 min 0 min 0 W/m 3,2 km/h (1 Bft) 95,74 %
23.03.2021 21:46 8,0 C 6,7 C 4,5 C 81 % 1024,8 hPa 0,0 l/m 0 min 0 min 0 W/m 0,0 km/h (0 Bft) 100,00 %
23.03.2021 21:48 7,9 C 6,7 C 4,5 C 81 % 1024,8 hPa 0,0 l/m 0 min 0 min 0 W/m 0,0 km/h (0 Bft) 100,00 %
23.03.2021 21:50 7,9 C 6,7 C 4,5 C 82 % 1024,8 hPa 0,0 l/m 0 min 0 min 0 W/m 3,2 km/h (1 Bft) 100,00 %
23.03.2021 21:52 7,9 C 6,7 C 4,5 C 82 % 1024,8 hPa 0,0 l/m 0 min 0 min 0 W/m 0,0 km/h (0 Bft) 100,00 %
23.03.2021 21:54 7,9 C 6,7 C 3,9 C 82 % 1024,8 hPa 0,0 l/m 0 min 0 min 0 W/m 0,0 km/h (0 Bft) 100,00 %
23.03.2021 21:56 7,8 C 6,7 C 3,9 C 82 % 1024,9 hPa 0,0 l/m 0 min 0 min 0 W/m 3,2 km/h (1 Bft) 97,87 %
23.03.2021 21:58 7,8 C 6,7 C 3,9 C 82 % 1024,8 hPa 0,0 l/m 0 min 0 min 0 W/m 3,2 km/h (1 Bft) 97,87 %
23.03.2021 22:00 7,8 C 6,7 C 3,9 C 82 % 1024,8 hPa 0,0 l/m 0 min 0 min 0 W/m 0,0 km/h (0 Bft) 100,00 %
23.03.2021 22:02 7,7 C 6,1 C 3,9 C 82 % 1024,8 hPa 0,0 l/m 0 min 0 min 0 W/m 3,2 km/h (1 Bft) 95,74 %
23.03.2021 22:04 7,7 C 6,1 C 3,9 C 82 % 1024,8 hPa 0,0 l/m 0 min 0 min 0 W/m 3,2 km/h (1 Bft) 97,87 %
23.03.2021 22:06 7,6 C 6,1 C 3,9 C 82 % 1024,8 hPa 0,0 l/m 0 min 0 min 0 W/m 3,2 km/h (1 Bft) 100,00 %
23.03.2021 22:08 7,6 C 6,7 C 3,9 C 82 % 1024,8 hPa 0,0 l/m 0 min 0 min 0 W/m 3,2 km/h (1 Bft) 100,00 %
23.03.2021 22:10 7,6 C 6,7 C 3,9 C 82 % 1024,8 hPa 0,0 l/m 0 min 0 min 0 W/m 3,2 km/h (1 Bft) 97,87 %
23.03.2021 22:12 7,6 C 6,7 C 3,9 C 82 % 1024,8 hPa 0,0 l/m 0 min 0 min 0 W/m 3,2 km/h (1 Bft) 100,00 %
23.03.2021 22:14 7,6 C 6,7 C 3,9 C 82 % 1024,8 hPa 0,0 l/m 0 min 0 min 0 W/m 3,2 km/h (1 Bft) 100,00 %
23.03.2021 22:16 7,6 C 6,1 C 3,9 C 82 % 1024,8 hPa 0,0 l/m 0 min 0 min 0 W/m 3,2 km/h (1 Bft) 100,00 %
23.03.2021 22:18 7,5 C 6,1 C 3,9 C 82 % 1024,8 hPa 0,0 l/m 0 min 0 min 0 W/m 0,0 km/h (0 Bft) 100,00 %
23.03.2021 22:20 7,5 C 6,1 C 3,9 C 82 % 1024,8 hPa 0,0 l/m 0 min 0 min 0 W/m 3,2 km/h (1 Bft) 100,00 %
23.03.2021 22:22 7,5 C 6,1 C 3,9 C 82 % 1024,8 hPa 0,0 l/m 0 min 0 min 0 W/m 3,2 km/h (1 Bft) 100,00 %
23.03.2021 22:24 7,5 C 6,1 C 3,9 C 82 % 1024,8 hPa 0,0 l/m 0 min 0 min 0 W/m 3,2 km/h (1 Bft) 100,00 %
23.03.2021 22:26 7,5 C 6,1 C 3,9 C 82 % 1024,8 hPa 0,0 l/m 0 min 0 min 0 W/m 0,0 km/h (0 Bft) 97,87 %
23.03.2021 22:28 7,5 C 6,1 C 3,9 C 82 % 1024,8 hPa 0,0 l/m 0 min 0 min 0 W/m 3,2 km/h (1 Bft) 100,00 %
23.03.2021 22:30 7,5 C 6,1 C 3,9 C 82 % 1024,8 hPa 0,0 l/m 0 min 0 min 0 W/m 3,2 km/h (1 Bft) 97,87 %
23.03.2021 22:32 7,4 C 6,1 C 3,9 C 82 % 1024,8 hPa 0,0 l/m 0 min 0 min 0 W/m 3,2 km/h (1 Bft) 95,74 %
23.03.2021 22:34 7,4 C 6,1 C 3,9 C 83 % 1024,8 hPa 0,0 l/m 0 min 0 min 0 W/m 3,2 km/h (1 Bft) 97,87 %
23.03.2021 22:36 7,4 C 6,1 C 3,9 C 83 % 1024,8 hPa 0,0 l/m 0 min 0 min 0 W/m 6,4 km/h (2 Bft) 97,87 %
23.03.2021 22:38 7,4 C 6,1 C 3,9 C 83 % 1024,8 hPa 0,0 l/m 0 min 0 min 0 W/m 6,4 km/h (2 Bft) 97,83 %
23.03.2021 22:40 7,3 C 6,1 C 3,9 C 83 % 1024,8 hPa 0,0 l/m 0 min 0 min 0 W/m 3,2 km/h (1 Bft) 95,74 %
23.03.2021 22:42 7,3 C 6,1 C 3,9 C 83 % 1024,8 hPa 0,0 l/m 0 min 0 min 0 W/m 3,2 km/h (1 Bft) 93,62 %
23.03.2021 22:44 7,3 C 6,1 C 3,9 C 83 % 1024,8 hPa 0,0 l/m 0 min 0 min 0 W/m 3,2 km/h (1 Bft) 95,74 %
23.03.2021 22:46 7,3 C 6,1 C 3,9 C 83 % 1024,8 hPa 0,0 l/m 0 min 0 min 0 W/m 3,2 km/h (1 Bft) 95,74 %
23.03.2021 22:48 7,2 C 6,1 C 3,9 C 83 % 1024,8 hPa 0,0 l/m 0 min 0 min 0 W/m 3,2 km/h (1 Bft) 95,74 %
23.03.2021 22:50 7,1 C 6,1 C 3,9 C 83 % 1024,8 hPa 0,0 l/m 0 min 0 min 0 W/m 3,2 km/h (1 Bft) 95,65 %
23.03.2021 22:52 7,1 C 5,6 C 3,9 C 83 % 1024,8 hPa 0,0 l/m 0 min 0 min 0 W/m 3,2 km/h (1 Bft) 93,62 %
23.03.2021 22:54 7,1 C 5,6 C 3,9 C 83 % 1024,8 hPa 0,0 l/m 0 min 0 min 0 W/m 3,2 km/h (1 Bft) 95,74 %
23.03.2021 22:56 7,0 C 5,6 C 3,9 C 83 % 1024,8 hPa 0,0 l/m 0 min 0 min 0 W/m 6,4 km/h (2 Bft) 95,74 %
23.03.2021 22:58 7,0 C 5,6 C 3,9 C 83 % 1024,8 hPa 0,0 l/m 0 min 0 min 0 W/m 3,2 km/h (1 Bft) 95,74 %
23.03.2021 23:00 7,0 C 5,6 C 3,9 C 83 % 1024,8 hPa 0,0 l/m 0 min 0 min 0 W/m 3,2 km/h (1 Bft) 95,74 %
23.03.2021 23:02 6,9 C 5,6 C 3,9 C 83 % 1024,7 hPa 0,0 l/m 0 min 0 min 0 W/m 3,2 km/h (1 Bft) 92,73 %
23.03.2021 23:04 6,9 C 5,6 C 3,4 C 83 % 1024,7 hPa 0,0 l/m 0 min 0 min 0 W/m 3,2 km/h (1 Bft) 95,74 %
23.03.2021 23:06 6,9 C 5,6 C 3,4 C 83 % 1024,7 hPa 0,0 l/m 0 min 0 min 0 W/m 3,2 km/h (1 Bft) 93,62 %
23.03.2021 23:08 6,8 C 5,6 C 3,4 C 83 % 1024,7 hPa 0,0 l/m 0 min 0 min 0 W/m 3,2 km/h (1 Bft) 95,74 %
23.03.2021 23:10 6,8 C 5,6 C 3,4 C 84 % 1024,7 hPa 0,0 l/m 0 min 0 min 0 W/m 3,2 km/h (1 Bft) 95,65 %
23.03.2021 23:12 6,8 C 5,6 C 3,4 C 84 % 1024,6 hPa 0,0 l/m 0 min 0 min 0 W/m 3,2 km/h (1 Bft) 95,74 %
23.03.2021 23:14 6,7 C 5,6 C 3,4 C 84 % 1024,6 hPa 0,0 l/m 0 min 0 min 0 W/m 3,2 km/h (1 Bft) 93,62 %
23.03.2021 23:16 6,6 C 5,6 C 3,4 C 84 % 1024,6 hPa 0,0 l/m 0 min 0 min 0 W/m 3,2 km/h (1 Bft) 95,74 %
23.03.2021 23:18 6,6 C 5,6 C 3,4 C 84 % 1024,6 hPa 0,0 l/m 0 min 0 min 0 W/m 3,2 km/h (1 Bft) 97,92 %
23.03.2021 23:20 6,6 C 5,6 C 3,4 C 84 % 1024,6 hPa 0,0 l/m 0 min 0 min 0 W/m 3,2 km/h (1 Bft) 97,96 %
23.03.2021 23:22 6,5 C 5,6 C 3,4 C 84 % 1024,6 hPa 0,0 l/m 0 min 0 min 0 W/m 3,2 km/h (1 Bft) 97,83 %
23.03.2021 23:24 6,5 C 5,6 C 3,4 C 84 % 1024,6 hPa 0,0 l/m 0 min 0 min 0 W/m 6,4 km/h (2 Bft) 100,00 %
23.03.2021 23:26 6,5 C 5,6 C 3,4 C 84 % 1024,6 hPa 0,0 l/m 0 min 0 min 0 W/m 3,2 km/h (1 Bft) 100,00 %
23.03.2021 23:28 6,5 C 5,6 C 3,4 C 84 % 1024,6 hPa 0,0 l/m 0 min 0 min 0 W/m 3,2 km/h (1 Bft) 93,62 %
23.03.2021 23:30 6,4 C 5,6 C 3,4 C 84 % 1024,6 hPa 0,0 l/m 0 min 0 min 0 W/m 6,4 km/h (2 Bft) 100,00 %
23.03.2021 23:32 6,4 C 5,6 C 3,4 C 84 % 1024,6 hPa 0,0 l/m 0 min 0 min 0 W/m 3,2 km/h (1 Bft) 97,87 %
23.03.2021 23:34 6,4 C 5,6 C 3,4 C 84 % 1024,6 hPa 0,0 l/m 0 min 0 min 0 W/m 3,2 km/h (1 Bft) 97,87 %
23.03.2021 23:36 6,4 C 5,6 C 3,4 C 85 % 1024,6 hPa 0,0 l/m 0 min 0 min 0 W/m 3,2 km/h (1 Bft) 97,83 %
23.03.2021 23:38 6,4 C 5,6 C 3,4 C 85 % 1024,6 hPa 0,0 l/m 0 min 0 min 0 W/m 0,0 km/h (0 Bft) 97,87 %
23.03.2021 23:40 6,4 C 5,0 C 3,4 C 85 % 1024,6 hPa 0,0 l/m 0 min 0 min 0 W/m 0,0 km/h (0 Bft) 97,87 %
23.03.2021 23:42 6,4 C 5,0 C 3,4 C 85 % 1024,7 hPa 0,0 l/m 0 min 0 min 0 W/m 3,2 km/h (1 Bft) 95,74 %
23.03.2021 23:44 6,3 C 5,0 C 2,8 C 85 % 1024,6 hPa 0,0 l/m 0 min 0 min 0 W/m 0,0 km/h (0 Bft) 97,87 %
23.03.2021 23:46 6,3 C 5,0 C 2,8 C 85 % 1024,6 hPa 0,0 l/m 0 min 0 min 0 W/m 0,0 km/h (0 Bft) 97,87 %
23.03.2021 23:48 6,3 C 5,0 C 2,8 C 85 % 1024,5 hPa 0,0 l/m 0 min 0 min 0 W/m 0,0 km/h (0 Bft) 95,65 %
23.03.2021 23:50 6,2 C 4,4 C 2,8 C 85 % 1024,5 hPa 0,0 l/m 0 min 0 min 0 W/m 0,0 km/h (0 Bft) 97,87 %
23.03.2021 23:52 6,2 C 4,4 C 2,3 C 85 % 1024,5 hPa 0,0 l/m 0 min 0 min 0 W/m 0,0 km/h (0 Bft) 97,87 %
23.03.2021 23:54 6,1 C 4,4 C 2,3 C 85 % 1024,6 hPa 0,0 l/m 0 min 0 min 0 W/m 0,0 km/h (0 Bft) 97,87 %
23.03.2021 23:56 6,1 C 4,4 C 2,3 C 85 % 1024,5 hPa 0,0 l/m 0 min 0 min 0 W/m 0,0 km/h (0 Bft) 97,87 %
23.03.2021 23:58 6,1 C 4,4 C 2,3 C 85 % 1024,6 hPa 0,0 l/m 0 min 0 min 0 W/m 0,0 km/h (0 Bft) 97,87 %
_ Min-Zeit 02:12 01:30 01:40 17:04 17:26 - - - - 00:00 00:02
Minimum _ 4,1 C 2,8 C 0,6 C 64 % 1024,3 hPa - - - - 0,0 km/h (0 Bft) 13,33 %
_ Max-Zeit 17:00 16:52 11:40 02:30 09:58 00:00 12:08 00:00 12:38 11:18 00:26
Maximum _ 13,4 C 18,3 C 17,8 C 90 % 1026,7 hPa 0,0 l/m 4 min 0 min 894 W/m 25,7 km/h
W (4 Bft)
100,00 %
Durchschnitt _ 8,6 C 8,7 C 6,4 C 78 % 1025,6 hPa #0,0 l/m #5:40 h #0 min. 242 W/m 6,6 km/h (2 Bft) 96,78 %
© 2021 W. Hausmann